Time,TemperatureF,DewpointF,PressureIn,WindDirection,WindDirectionDegrees,WindSpeedMPH,WindSpeedGustMPH,Humidity,HourlyPrecipIn,Conditions,Clouds,dailyrainin,SoftwareType,DateUTC
2013-07-05 00:01:00,72.7,44.8,29.67,NW,315,11.6,12.5,37,0.00,,,0.00,WUHU216HW,2013-07-05 06:01:00,
2013-07-05 00:02:00,72.5,44.6,29.67,NNW,338,10.3,12.5,37,0.00,,,0.00,WUHU216HW,2013-07-05 06:02:00,
2013-07-05 00:04:00,72.5,44.6,29.67,NW,315,9.8,12.5,37,0.00,,,0.00,WUHU216HW,2013-07-05 06:04:00,
2013-07-05 00:05:00,72.4,44.5,29.67,NW,315,12.1,12.5,37,0.00,,,0.00,WUHU216HW,2013-07-05 06:05:00,
2013-07-05 00:06:00,72.4,44.5,29.67,NNW,338,10.7,12.5,37,0.00,,,0.00,WUHU216HW,2013-07-05 06:06:00,
2013-07-05 00:07:00,72.4,44.5,29.67,NNW,338,10.7,12.5,37,0.00,,,0.00,WUHU216HW,2013-07-05 06:07:00,
2013-07-05 00:09:00,72.2,45.1,29.67,NW,315,9.8,12.5,38,0.00,,,0.00,WUHU216HW,2013-07-05 06:09:00,
2013-07-05 00:10:00,72.2,45.1,29.67,NW,315,10.3,12.5,38,0.00,,,0.00,WUHU216HW,2013-07-05 06:10:00,
2013-07-05 00:11:00,72.2,45.1,29.67,NW,315,8.5,12.5,38,0.00,,,0.00,WUHU216HW,2013-07-05 06:11:00,
2013-07-05 00:12:00,72.0,44.9,29.67,NW,315,10.7,12.5,38,0.00,,,0.00,WUHU216HW,2013-07-05 06:12:00,
2013-07-05 00:14:00,71.8,44.7,29.67,NW,315,7.8,12.5,38,0.00,,,0.00,WUHU216HW,2013-07-05 06:14:00,
2013-07-05 00:15:00,71.8,44.7,29.67,NW,315,6.7,12.5,38,0.00,,,0.00,WUHU216HW,2013-07-05 06:15:00,
2013-07-05 00:16:00,71.6,44.7,29.67,NNW,338,7.6,12.3,38,0.00,,,0.00,WUHU216HW,2013-07-05 06:16:00,
2013-07-05 00:17:00,71.5,45.2,29.67,NNW,338,9.2,12.3,39,0.00,,,0.00,WUHU216HW,2013-07-05 06:17:00,
2013-07-05 00:20:00,71.3,45.0,29.67,NW,315,7.6,10.7,39,0.00,,,0.00,WUHU216HW,2013-07-05 06:20:00,
2013-07-05 00:21:00,70.9,44.7,29.67,NW,315,8.5,10.7,39,0.00,,,0.00,WUHU216HW,2013-07-05 06:21:00,
2013-07-05 00:22:00,70.9,44.7,29.67,NW,315,8.3,9.8,39,0.00,,,0.00,WUHU216HW,2013-07-05 06:22:00,
2013-07-05 00:25:00,70.6,44.4,29.67,NW,315,6.5,9.2,39,0.00,,,0.00,WUHU216HW,2013-07-05 06:25:00,
2013-07-05 00:27:00,70.2,44.8,29.67,NW,315,8.1,9.2,40,0.00,,,0.00,WUHU216HW,2013-07-05 06:27:00,
2013-07-05 00:30:00,70.2,44.0,29.67,NW,315,6.9,8.7,39,0.00,,,0.00,WUHU216HW,2013-07-05 06:30:00,
2013-07-05 00:32:00,70.2,44.0,29.67,NW,315,7.6,8.7,39,0.00,,,0.00,WUHU216HW,2013-07-05 06:32:00,
2013-07-05 00:35:00,70.4,44.2,29.68,NW,315,8.1,8.5,39,0.00,,,0.00,WUHU216HW,2013-07-05 06:35:00,
2013-07-05 00:37:00,70.2,44.0,29.68,NW,315,6.0,8.5,39,0.00,,,0.00,WUHU216HW,2013-07-05 06:37:00,
2013-07-05 00:38:00,70.2,44.0,29.67,NNW,338,6.0,8.5,39,0.00,,,0.00,WUHU216HW,2013-07-05 06:38:00,
2013-07-05 00:41:00,70.0,44.7,29.68,NW,315,5.1,8.5,40,0.00,,,0.00,WUHU216HW,2013-07-05 06:41:00,
2013-07-05 00:42:00,70.0,44.7,29.68,NW,315,5.4,8.1,40,0.00,,,0.00,WUHU216HW,2013-07-05 06:42:00,
2013-07-05 00:43:00,69.8,44.5,29.68,NW,315,4.7,8.1,40,0.00,,,0.00,WUHU216HW,2013-07-05 06:43:00,
2013-07-05 00:46:00,69.5,44.1,29.68,NNW,338,3.8,7.6,40,0.00,,,0.00,WUHU216HW,2013-07-05 06:46:00,
2013-07-05 00:47:00,69.5,44.1,29.68,North,0,5.1,7.6,40,0.00,,,0.00,WUHU216HW,2013-07-05 06:47:00,
2013-07-05 00:48:00,69.5,44.1,29.68,NNW,338,4.3,8.7,40,0.00,,,0.00,WUHU216HW,2013-07-05 06:48:00,
2013-07-05 00:49:00,69.5,44.1,29.68,North,0,3.6,8.7,40,0.00,,,0.00,WUHU216HW,2013-07-05 06:49:00,
2013-07-05 00:51:00,69.5,44.1,29.67,North,0,7.2,8.7,40,0.00,,,0.00,WUHU216HW,2013-07-05 06:51:00,
2013-07-05 00:52:00,69.8,43.0,29.67,NNW,338,4.9,8.9,38,0.00,,,0.00,WUHU216HW,2013-07-05 06:52:00,
2013-07-05 00:54:00,70.4,43.5,29.68,North,0,4.7,8.9,38,0.00,,,0.00,WUHU216HW,2013-07-05 06:54:00,
2013-07-05 00:56:00,70.6,43.7,29.68,NW,315,1.6,8.9,38,0.00,,,0.00,WUHU216HW,2013-07-05 06:56:00,
2013-07-05 00:57:00,70.4,43.5,29.68,North,0,1.8,8.9,38,0.00,,,0.00,WUHU216HW,2013-07-05 06:57:00,
2013-07-05 00:59:00,70.4,43.5,29.68,North,0,4.7,8.9,38,0.00,,,0.00,WUHU216HW,2013-07-05 06:59:00,
2013-07-05 01:00:00,70.4,44.2,29.68,North,0,2.9,8.9,39,0.00,,,0.00,WUHU216HW,2013-07-05 07:00:00,
2013-07-05 01:01:00,70.2,44.0,29.68,North,0,2.9,8.9,39,0.00,,,0.00,WUHU216HW,2013-07-05 07:01:00,
2013-07-05 01:02:00,70.0,43.1,29.68,NNW,338,2.5,4.9,38,0.00,,,0.00,WUHU216HW,2013-07-05 07:02:00,
2013-07-05 01:04:00,69.8,43.8,29.68,NNW,338,3.8,5.6,39,0.00,,,0.00,WUHU216HW,2013-07-05 07:04:00,
2013-07-05 01:05:00,69.8,43.8,29.68,North,0,2.0,5.6,39,0.00,,,0.00,WUHU216HW,2013-07-05 07:05:00,
2013-07-05 01:06:00,69.7,43.6,29.68,North,0,2.9,5.6,39,0.00,,,0.00,WUHU216HW,2013-07-05 07:06:00,
2013-07-05 01:07:00,69.5,43.4,29.68,NNW,338,3.6,5.6,39,0.00,,,0.00,WUHU216HW,2013-07-05 07:07:00,
2013-07-05 01:09:00,69.1,43.1,29.68,NNW,338,4.7,6.3,39,0.00,,,0.00,WUHU216HW,2013-07-05 07:09:00,
2013-07-05 01:10:00,68.9,43.7,29.68,NNW,338,4.7,6.3,40,0.00,,,0.00,WUHU216HW,2013-07-05 07:10:00,
2013-07-05 01:11:00,68.6,43.3,29.68,NNW,338,4.9,6.5,40,0.00,,,0.00,WUHU216HW,2013-07-05 07:11:00,
2013-07-05 01:12:00,68.4,43.2,29.68,NNW,338,6.5,6.5,40,0.00,,,0.00,WUHU216HW,2013-07-05 07:12:00,
2013-07-05 01:14:00,68.0,42.8,29.68,NW,315,7.6,7.8,40,0.00,,,0.00,WUHU216HW,2013-07-05 07:14:00,
2013-07-05 01:16:00,68.0,42.1,29.68,NNW,338,8.1,8.1,39,0.00,,,0.00,WUHU216HW,2013-07-05 07:16:00,
2013-07-05 01:17:00,67.9,41.9,29.68,NNW,338,9.6,9.8,39,0.00,,,0.00,WUHU216HW,2013-07-05 07:17:00,
2013-07-05 01:18:00,67.9,41.9,29.68,NNW,338,9.6,9.8,39,0.00,,,0.00,WUHU216HW,2013-07-05 07:18:00,
2013-07-05 01:20:00,68.4,42.4,29.68,NW,315,9.2,10.5,39,0.00,,,0.00,WUHU216HW,2013-07-05 07:20:00,
2013-07-05 01:21:00,68.6,42.6,29.68,WNW,293,8.9,10.5,39,0.00,,,0.00,WUHU216HW,2013-07-05 07:21:00,
2013-07-05 01:22:00,68.9,42.9,29.68,NW,315,7.2,10.7,39,0.00,,,0.00,WUHU216HW,2013-07-05 07:22:00,
2013-07-05 01:23:00,69.1,43.1,29.68,NW,315,8.9,10.7,39,0.00,,,0.00,WUHU216HW,2013-07-05 07:23:00,
2013-07-05 01:25:00,69.1,43.1,29.68,NW,315,11.2,11.2,39,0.00,,,0.00,WUHU216HW,2013-07-05 07:25:00,
2013-07-05 01:26:00,69.1,42.3,29.68,NW,315,10.1,11.2,38,0.00,,,0.00,WUHU216HW,2013-07-05 07:26:00,
2013-07-05 01:27:00,69.3,42.5,29.68,NNW,338,8.3,11.2,38,0.00,,,0.00,WUHU216HW,2013-07-05 07:27:00,
2013-07-05 01:28:00,69.3,43.2,29.68,North,0,3.6,11.2,39,0.00,,,0.00,WUHU216HW,2013-07-05 07:28:00,
2013-07-05 01:30:00,68.9,43.7,29.68,North,0,3.4,11.2,40,0.00,,,0.00,WUHU216HW,2013-07-05 07:30:00,
2013-07-05 01:31:00,68.8,43.5,29.68,North,0,4.0,11.2,40,0.00,,,0.00,WUHU216HW,2013-07-05 07:31:00,
2013-07-05 01:32:00,68.4,43.2,29.68,NNW,338,5.4,11.2,40,0.00,,,0.00,WUHU216HW,2013-07-05 07:32:00,
2013-07-05 01:33:00,68.2,43.6,29.68,NNW,338,6.0,11.2,41,0.00,,,0.00,WUHU216HW,2013-07-05 07:33:00,
2013-07-05 01:34:00,68.2,43.0,29.68,NW,315,6.9,11.2,40,0.00,,,0.00,WUHU216HW,2013-07-05 07:34:00,
2013-07-05 01:35:00,68.0,43.5,29.68,NW,315,6.3,10.5,41,0.00,,,0.00,WUHU216HW,2013-07-05 07:35:00,
2013-07-05 01:36:00,68.0,42.8,29.68,NW,315,6.3,10.1,40,0.00,,,0.00,WUHU216HW,2013-07-05 07:36:00,
2013-07-05 01:37:00,68.0,42.8,29.68,NW,315,9.6,9.6,40,0.00,,,0.00,WUHU216HW,2013-07-05 07:37:00,
2013-07-05 01:38:00,68.0,42.8,29.68,NW,315,9.4,9.8,40,0.00,,,0.00,WUHU216HW,2013-07-05 07:38:00,
2013-07-05 01:39:00,68.0,42.8,29.68,WNW,293,9.2,9.8,40,0.00,,,0.00,WUHU216HW,2013-07-05 07:39:00,
2013-07-05 01:40:00,68.4,42.4,29.68,NW,315,9.8,9.8,39,0.00,,,0.00,WUHU216HW,2013-07-05 07:40:00,
2013-07-05 01:41:00,68.6,42.6,29.68,NW,315,10.3,10.3,39,0.00,,,0.00,WUHU216HW,2013-07-05 07:41:00,
2013-07-05 01:42:00,68.8,42.8,29.68,NNW,338,7.6,10.3,39,0.00,,,0.00,WUHU216HW,2013-07-05 07:42:00,
2013-07-05 01:43:00,68.9,42.9,29.68,NW,315,7.8,11.0,39,0.00,,,0.00,WUHU216HW,2013-07-05 07:43:00,
2013-07-05 01:44:00,68.9,42.2,29.68,NW,315,8.3,11.0,38,0.00,,,0.00,WUHU216HW,2013-07-05 07:44:00,
2013-07-05 01:46:00,69.1,42.3,29.68,NNW,338,8.1,11.0,38,0.00,,,0.00,WUHU216HW,2013-07-05 07:46:00,
2013-07-05 01:47:00,69.3,42.5,29.68,WNW,293,8.5,11.0,38,0.00,,,0.00,WUHU216HW,2013-07-05 07:47:00,
2013-07-05 01:49:00,69.3,42.5,29.68,NW,315,11.2,11.4,38,0.00,,,0.00,WUHU216HW,2013-07-05 07:49:00,
2013-07-05 01:51:00,69.3,42.5,29.68,NW,315,9.2,11.4,38,0.00,,,0.00,WUHU216HW,2013-07-05 07:51:00,
2013-07-05 01:52:00,69.3,42.5,29.68,NNW,338,8.3,11.4,38,0.00,,,0.00,WUHU216HW,2013-07-05 07:52:00,
2013-07-05 01:53:00,69.3,42.5,29.68,North,0,9.8,11.4,38,0.00,,,0.00,WUHU216HW,2013-07-05 07:53:00,
2013-07-05 01:54:00,69.3,42.5,29.68,NW,315,8.5,11.4,38,0.00,,,0.00,WUHU216HW,2013-07-05 07:54:00,
2013-07-05 01:56:00,69.3,42.5,29.68,NNW,338,8.1,11.4,38,0.00,,,0.00,WUHU216HW,2013-07-05 07:56:00,
2013-07-05 01:57:00,69.1,42.3,29.68,NNW,338,8.7,11.4,38,0.00,,,0.00,WUHU216HW,2013-07-05 07:57:00,
2013-07-05 01:58:00,69.1,43.1,29.68,NNW,338,7.6,11.2,39,0.00,,,0.00,WUHU216HW,2013-07-05 07:58:00,
2013-07-05 01:59:00,69.1,43.1,29.68,NNW,338,8.3,9.8,39,0.00,,,0.00,WUHU216HW,2013-07-05 07:59:00,
2013-07-05 02:01:00,68.9,42.9,29.69,NNW,338,8.7,9.8,39,0.00,,,0.00,WUHU216HW,2013-07-05 08:01:00,
2013-07-05 02:03:00,68.8,42.8,29.69,NW,315,9.6,9.8,39,0.00,,,0.00,WUHU216HW,2013-07-05 08:03:00,
2013-07-05 02:04:00,68.8,42.8,29.69,NNW,338,10.5,10.5,39,0.00,,,0.00,WUHU216HW,2013-07-05 08:04:00,
2013-07-05 02:05:00,68.8,42.8,29.69,NW,315,9.6,10.5,39,0.00,,,0.00,WUHU216HW,2013-07-05 08:05:00,
2013-07-05 02:06:00,68.6,42.6,29.69,NNW,338,12.1,12.1,39,0.00,,,0.00,WUHU216HW,2013-07-05 08:06:00,
2013-07-05 02:08:00,68.6,42.6,29.69,NW,315,12.3,12.3,39,0.00,,,0.00,WUHU216HW,2013-07-05 08:08:00,
2013-07-05 02:09:00,68.6,42.6,29.68,NW,315,12.1,12.3,39,0.00,,,0.00,WUHU216HW,2013-07-05 08:09:00,
2013-07-05 02:10:00,68.8,42.8,29.68,NW,315,11.2,12.5,39,0.00,,,0.00,WUHU216HW,2013-07-05 08:10:00,
2013-07-05 02:11:00,68.8,42.8,29.69,NW,315,11.6,14.8,39,0.00,,,0.00,WUHU216HW,2013-07-05 08:11:00,
2013-07-05 02:13:00,68.8,42.8,29.69,NNW,338,12.3,14.8,39,0.00,,,0.00,WUHU216HW,2013-07-05 08:13:00,
2013-07-05 02:14:00,68.8,42.8,29.69,NNW,338,15.0,15.0,39,0.00,,,0.00,WUHU216HW,2013-07-05 08:14:00,
2013-07-05 02:15:00,68.6,42.6,29.69,NNW,338,12.8,15.0,39,0.00,,,0.00,WUHU216HW,2013-07-05 08:15:00,
2013-07-05 02:16:00,68.6,42.6,29.69,NNW,338,15.2,15.7,39,0.00,,,0.00,WUHU216HW,2013-07-05 08:16:00,
2013-07-05 02:18:00,68.4,43.2,29.69,NW,315,15.0,16.3,40,0.00,,,0.00,WUHU216HW,2013-07-05 08:18:00,
2013-07-05 02:19:00,68.4,43.2,29.69,NW,315,12.8,16.3,40,0.00,,,0.00,WUHU216HW,2013-07-05 08:19:00,
2013-07-05 02:20:00,68.4,43.2,29.69,NW,315,14.8,16.3,40,0.00,,,0.00,WUHU216HW,2013-07-05 08:20:00,
2013-07-05 02:21:00,68.4,43.2,29.69,NW,315,15.0,16.3,40,0.00,,,0.00,WUHU216HW,2013-07-05 08:21:00,
2013-07-05 02:22:00,68.4,43.2,29.69,NNW,338,12.5,16.3,40,0.00,,,0.00,WUHU216HW,2013-07-05 08:22:00,
2013-07-05 02:23:00,68.2,43.0,29.69,NW,315,13.4,16.3,40,0.00,,,0.00,WUHU216HW,2013-07-05 08:23:00,
2013-07-05 02:24:00,68.2,43.0,29.69,NW,315,13.2,16.3,40,0.00,,,0.00,WUHU216HW,2013-07-05 08:24:00,
2013-07-05 02:25:00,68.2,43.0,29.69,NW,315,15.0,16.3,40,0.00,,,0.00,WUHU216HW,2013-07-05 08:25:00,
2013-07-05 02:26:00,68.2,43.0,29.69,NW,315,12.1,16.3,40,0.00,,,0.00,WUHU216HW,2013-07-05 08:26:00,
2013-07-05 02:27:00,68.0,42.8,29.69,NW,315,14.5,16.3,40,0.00,,,0.00,WUHU216HW,2013-07-05 08:27:00,
2013-07-05 02:28:00,68.0,42.8,29.69,NW,315,13.4,15.9,40,0.00,,,0.00,WUHU216HW,2013-07-05 08:28:00,
2013-07-05 02:29:00,67.9,41.9,29.69,NW,315,14.1,15.9,39,0.00,,,0.00,WUHU216HW,2013-07-05 08:29:00,
2013-07-05 02:30:00,68.0,42.1,29.69,NW,315,12.8,15.9,39,0.00,,,0.00,WUHU216HW,2013-07-05 08:30:00,
2013-07-05 02:31:00,68.0,42.1,29.69,NW,315,12.8,15.9,39,0.00,,,0.00,WUHU216HW,2013-07-05 08:31:00,
2013-07-05 02:33:00,68.0,42.1,29.69,NNW,338,11.9,15.9,39,0.00,,,0.00,WUHU216HW,2013-07-05 08:33:00,
2013-07-05 02:35:00,67.9,41.9,29.69,NW,315,12.1,15.0,39,0.00,,,0.00,WUHU216HW,2013-07-05 08:35:00,
2013-07-05 02:36:00,67.7,41.8,29.69,NW,315,11.4,14.5,39,0.00,,,0.00,WUHU216HW,2013-07-05 08:36:00,
2013-07-05 02:38:00,67.7,42.5,29.68,NW,315,9.8,14.1,40,0.00,,,0.00,WUHU216HW,2013-07-05 08:38:00,
2013-07-05 02:40:00,67.5,42.4,29.69,NNW,338,8.7,14.1,40,0.00,,,0.00,WUHU216HW,2013-07-05 08:40:00,
2013-07-05 02:41:00,67.3,42.2,29.69,NNW,338,9.4,14.1,40,0.00,,,0.00,WUHU216HW,2013-07-05 08:41:00,
2013-07-05 02:42:00,67.3,42.2,29.69,NNW,338,9.6,14.1,40,0.00,,,0.00,WUHU216HW,2013-07-05 08:42:00,
2013-07-05 02:43:00,67.1,42.0,29.69,NNW,338,8.5,14.1,40,0.00,,,0.00,WUHU216HW,2013-07-05 08:43:00,
2013-07-05 02:45:00,66.8,42.3,29.69,NNW,338,8.7,14.1,41,0.00,,,0.00,WUHU216HW,2013-07-05 08:45:00,
2013-07-05 02:46:00,66.8,41.7,29.69,North,0,7.2,12.1,40,0.00,,,0.00,WUHU216HW,2013-07-05 08:46:00,
2013-07-05 02:47:00,66.8,42.3,29.69,NNW,338,7.6,12.1,41,0.00,,,0.00,WUHU216HW,2013-07-05 08:47:00,
2013-07-05 02:48:00,66.8,42.3,29.69,NNW,338,6.5,12.1,41,0.00,,,0.00,WUHU216HW,2013-07-05 08:48:00,
2013-07-05 02:49:00,66.8,42.3,29.69,NW,315,6.5,10.1,41,0.00,,,0.00,WUHU216HW,2013-07-05 08:49:00,
2013-07-05 02:50:00,66.6,42.1,29.69,NNW,338,7.6,9.8,41,0.00,,,0.00,WUHU216HW,2013-07-05 08:50:00,
2013-07-05 02:51:00,66.6,42.1,29.69,NNW,338,6.9,9.8,41,0.00,,,0.00,WUHU216HW,2013-07-05 08:51:00,
2013-07-05 02:52:00,66.6,42.1,29.69,NNW,338,6.3,9.8,41,0.00,,,0.00,WUHU216HW,2013-07-05 08:52:00,
2013-07-05 02:53:00,66.6,42.1,29.69,NNW,338,6.3,9.8,41,0.00,,,0.00,WUHU216HW,2013-07-05 08:53:00,
2013-07-05 02:54:00,66.6,42.1,29.69,North,0,4.7,9.8,41,0.00,,,0.00,WUHU216HW,2013-07-05 08:54:00,
2013-07-05 02:55:00,66.4,41.9,29.70,NNW,338,6.3,7.6,41,0.00,,,0.00,WUHU216HW,2013-07-05 08:55:00,
2013-07-05 02:58:00,66.4,41.9,29.70,NNW,338,4.0,7.6,41,0.00,,,0.00,WUHU216HW,2013-07-05 08:58:00,
2013-07-05 03:01:00,66.2,41.9,29.70,NNW,338,4.7,7.6,41,0.00,,,0.00,WUHU216HW,2013-07-05 09:01:00,
2013-07-05 03:03:00,66.4,41.4,29.70,North,0,3.4,6.7,40,0.00,,,0.00,WUHU216HW,2013-07-05 09:03:00,
2013-07-05 03:04:00,66.4,41.4,29.70,North,0,3.4,6.7,40,0.00,,,0.00,WUHU216HW,2013-07-05 09:04:00,
2013-07-05 03:06:00,66.6,41.6,29.70,NNW,338,4.3,6.3,40,0.00,,,0.00,WUHU216HW,2013-07-05 09:06:00,
2013-07-05 03:09:00,66.6,40.9,29.70,NNW,338,4.3,6.3,39,0.00,,,0.00,WUHU216HW,2013-07-05 09:09:00,
2013-07-05 03:11:00,66.6,40.9,29.70,NNW,338,2.9,6.3,39,0.00,,,0.00,WUHU216HW,2013-07-05 09:11:00,
2013-07-05 03:14:00,66.2,41.9,29.70,NNW,338,3.4,6.3,41,0.00,,,0.00,WUHU216HW,2013-07-05 09:14:00,
2013-07-05 03:15:00,66.2,41.9,29.70,North,0,3.4,5.4,41,0.00,,,0.00,WUHU216HW,2013-07-05 09:15:00,
2013-07-05 03:16:00,65.9,42.1,29.70,NNW,338,3.4,4.9,42,0.00,,,0.00,WUHU216HW,2013-07-05 09:16:00,
2013-07-05 03:17:00,65.9,42.1,29.70,NNW,338,3.4,4.9,42,0.00,,,0.00,WUHU216HW,2013-07-05 09:17:00,
2013-07-05 03:20:00,65.5,39.9,29.70,NNW,338,8.5,8.5,39,0.00,,,0.00,WUHU216HW,2013-07-05 09:20:00,
2013-07-05 03:21:00,65.5,39.9,29.70,WNW,293,8.9,8.9,39,0.00,,,0.00,WUHU216HW,2013-07-05 09:21:00,
2013-07-05 03:22:00,65.7,39.3,29.70,NW,315,7.6,8.9,38,0.00,,,0.00,WUHU216HW,2013-07-05 09:22:00,
2013-07-05 03:25:00,66.8,38.8,29.70,NW,315,9.8,10.1,36,0.00,,,0.00,WUHU216HW,2013-07-05 09:25:00,
2013-07-05 03:26:00,67.1,39.9,29.70,NW,315,8.5,10.1,37,0.00,,,0.00,WUHU216HW,2013-07-05 09:26:00,
2013-07-05 03:27:00,67.3,40.0,29.70,NW,315,7.4,10.1,37,0.00,,,0.00,WUHU216HW,2013-07-05 09:27:00,
2013-07-05 03:28:00,67.5,39.4,29.70,NW,315,8.1,10.1,36,0.00,,,0.00,WUHU216HW,2013-07-05 09:28:00,
2013-07-05 03:31:00,68.2,39.3,29.70,NW,315,7.6,10.1,35,0.00,,,0.00,WUHU216HW,2013-07-05 09:31:00,
2013-07-05 03:33:00,68.4,39.5,29.70,NW,315,7.4,10.1,35,0.00,,,0.00,WUHU216HW,2013-07-05 09:33:00,
2013-07-05 03:37:00,68.6,38.9,29.70,WNW,293,8.9,10.3,34,0.00,,,0.00,WUHU216HW,2013-07-05 09:37:00,
2013-07-05 03:38:00,68.6,38.9,29.70,NW,315,8.5,10.5,34,0.00,,,0.00,WUHU216HW,2013-07-05 09:38:00,
2013-07-05 03:43:00,68.8,39.1,29.70,WNW,293,9.6,10.7,34,0.00,,,0.00,WUHU216HW,2013-07-05 09:43:00,
2013-07-05 03:48:00,68.9,38.5,29.70,NW,315,12.3,13.9,33,0.00,,,0.00,WUHU216HW,2013-07-05 09:48:00,
2013-07-05 03:49:00,68.9,38.5,29.70,NW,315,12.3,13.9,33,0.00,,,0.00,WUHU216HW,2013-07-05 09:49:00,
2013-07-05 03:54:00,69.1,38.6,29.70,NW,315,11.9,14.1,33,0.00,,,0.00,WUHU216HW,2013-07-05 09:54:00,
2013-07-05 03:55:00,69.1,38.6,29.70,WNW,293,13.9,15.0,33,0.00,,,0.00,WUHU216HW,2013-07-05 09:55:00,
2013-07-05 03:59:00,69.3,38.8,29.70,WNW,293,12.1,15.0,33,0.00,,,0.00,WUHU216HW,2013-07-05 09:59:00,
2013-07-05 04:00:00,69.3,38.8,29.70,NW,315,13.6,15.0,33,0.00,,,0.00,WUHU216HW,2013-07-05 10:00:00,
2013-07-05 04:04:00,69.1,38.6,29.70,WNW,293,11.6,15.0,33,0.00,,,0.00,WUHU216HW,2013-07-05 10:04:00,
2013-07-05 04:05:00,69.1,38.6,29.70,NW,315,11.2,14.5,33,0.00,,,0.00,WUHU216HW,2013-07-05 10:05:00,
2013-07-05 04:06:00,69.1,38.6,29.70,NW,315,11.2,14.5,33,0.00,,,0.00,WUHU216HW,2013-07-05 10:06:00,
2013-07-05 04:09:00,69.1,38.6,29.70,NW,315,10.7,14.5,33,0.00,,,0.00,WUHU216HW,2013-07-05 10:09:00,
2013-07-05 04:10:00,69.1,38.6,29.70,NW,315,11.0,14.5,33,0.00,,,0.00,WUHU216HW,2013-07-05 10:10:00,
2013-07-05 04:11:00,69.1,38.6,29.70,NW,315,11.0,14.5,33,0.00,,,0.00,WUHU216HW,2013-07-05 10:11:00,
2013-07-05 04:12:00,69.1,38.6,29.70,WNW,293,9.4,13.2,33,0.00,,,0.00,WUHU216HW,2013-07-05 10:12:00,
2013-07-05 04:14:00,68.9,38.5,29.70,WNW,293,11.0,13.2,33,0.00,,,0.00,WUHU216HW,2013-07-05 10:14:00,
2013-07-05 04:16:00,68.8,38.4,29.70,NW,315,9.8,13.2,33,0.00,,,0.00,WUHU216HW,2013-07-05 10:16:00,
2013-07-05 04:17:00,68.8,38.4,29.70,NW,315,9.8,13.2,33,0.00,,,0.00,WUHU216HW,2013-07-05 10:17:00,
2013-07-05 04:20:00,68.8,38.4,29.69,NW,315,12.5,13.0,33,0.00,,,0.00,WUHU216HW,2013-07-05 10:20:00,
2013-07-05 04:21:00,68.8,38.4,29.69,NW,315,10.5,13.0,33,0.00,,,0.00,WUHU216HW,2013-07-05 10:21:00,
2013-07-05 04:22:00,68.8,38.4,29.69,NW,315,12.3,13.0,33,0.00,,,0.00,WUHU216HW,2013-07-05 10:22:00,
2013-07-05 04:25:00,68.9,38.5,29.69,NW,315,14.1,14.5,33,0.00,,,0.00,WUHU216HW,2013-07-05 10:25:00,
2013-07-05 04:26:00,68.9,38.5,29.69,WNW,293,11.2,14.5,33,0.00,,,0.00,WUHU216HW,2013-07-05 10:26:00,
2013-07-05 04:29:00,68.8,38.4,29.69,WNW,293,9.4,14.5,33,0.00,,,0.00,WUHU216HW,2013-07-05 10:29:00,
2013-07-05 04:31:00,68.8,38.4,29.69,NW,315,8.1,14.5,33,0.00,,,0.00,WUHU216HW,2013-07-05 10:31:00,
2013-07-05 04:32:00,68.8,38.4,29.69,WNW,293,9.8,14.5,33,0.00,,,0.00,WUHU216HW,2013-07-05 10:32:00,
2013-07-05 04:34:00,68.6,38.2,29.69,NW,315,7.8,14.5,33,0.00,,,0.00,WUHU216HW,2013-07-05 10:34:00,
2013-07-05 04:35:00,68.4,38.7,29.69,NW,315,8.5,14.1,34,0.00,,,0.00,WUHU216HW,2013-07-05 10:35:00,
2013-07-05 04:36:00,68.2,38.6,29.69,NW,315,9.2,13.0,34,0.00,,,0.00,WUHU216HW,2013-07-05 10:36:00,
2013-07-05 04:38:00,68.0,38.4,29.69,NW,315,8.3,10.7,34,0.00,,,0.00,WUHU216HW,2013-07-05 10:38:00,
2013-07-05 04:39:00,68.0,38.4,29.69,NNW,338,8.1,10.7,34,0.00,,,0.00,WUHU216HW,2013-07-05 10:39:00,
2013-07-05 04:41:00,68.0,38.4,29.69,WNW,293,8.3,10.7,34,0.00,,,0.00,WUHU216HW,2013-07-05 10:41:00,
2013-07-05 04:43:00,67.7,38.1,29.69,NW,315,8.1,10.1,34,0.00,,,0.00,WUHU216HW,2013-07-05 10:43:00,
2013-07-05 04:44:00,67.7,38.1,29.69,NW,315,8.3,10.1,34,0.00,,,0.00,WUHU216HW,2013-07-05 10:44:00,
2013-07-05 04:46:00,67.7,38.1,29.69,WNW,293,8.5,10.1,34,0.00,,,0.00,WUHU216HW,2013-07-05 10:46:00,
2013-07-05 04:47:00,67.7,38.1,29.69,NW,315,7.6,9.6,34,0.00,,,0.00,WUHU216HW,2013-07-05 10:47:00,
2013-07-05 04:48:00,67.7,38.1,29.69,WNW,293,10.7,11.0,34,0.00,,,0.00,WUHU216HW,2013-07-05 10:48:00,
2013-07-05 04:50:00,67.7,38.1,29.69,WNW,293,9.8,11.0,34,0.00,,,0.00,WUHU216HW,2013-07-05 10:50:00,
2013-07-05 04:52:00,67.9,37.5,29.69,NW,315,9.8,11.0,33,0.00,,,0.00,WUHU216HW,2013-07-05 10:52:00,
2013-07-05 04:54:00,68.0,37.7,29.69,NW,315,12.8,13.4,33,0.00,,,0.00,WUHU216HW,2013-07-05 10:54:00,
2013-07-05 04:55:00,68.2,37.8,29.69,WNW,293,12.8,13.4,33,0.00,,,0.00,WUHU216HW,2013-07-05 10:55:00,
2013-07-05 04:57:00,68.4,38.0,29.69,WNW,293,11.4,13.4,33,0.00,,,0.00,WUHU216HW,2013-07-05 10:57:00,
2013-07-05 04:59:00,68.4,37.3,29.69,NW,315,11.4,13.4,32,0.00,,,0.00,WUHU216HW,2013-07-05 10:59:00,
2013-07-05 05:01:00,68.6,37.5,29.69,WNW,293,9.8,13.4,32,0.00,,,0.00,WUHU216HW,2013-07-05 11:01:00,
2013-07-05 05:02:00,68.6,37.5,29.69,NW,315,13.4,13.4,32,0.00,,,0.00,WUHU216HW,2013-07-05 11:02:00,
2013-07-05 05:04:00,68.6,37.5,29.69,NW,315,12.3,13.4,32,0.00,,,0.00,WUHU216HW,2013-07-05 11:04:00,
2013-07-05 05:07:00,68.6,37.5,29.69,NW,315,8.7,13.4,32,0.00,,,0.00,WUHU216HW,2013-07-05 11:07:00,
2013-07-05 05:08:00,68.6,36.7,29.69,WNW,293,13.6,14.1,31,0.00,,,0.00,WUHU216HW,2013-07-05 11:08:00,
2013-07-05 05:09:00,68.6,36.7,29.69,WNW,293,15.0,15.0,31,0.00,,,0.00,WUHU216HW,2013-07-05 11:09:00,
2013-07-05 05:13:00,68.8,36.8,29.69,NW,315,11.6,15.0,31,0.00,,,0.00,WUHU216HW,2013-07-05 11:13:00,
2013-07-05 05:14:00,68.8,36.8,29.69,West,270,12.1,16.6,31,0.00,,,0.00,WUHU216HW,2013-07-05 11:14:00,
2013-07-05 05:18:00,68.8,36.8,29.69,WNW,293,12.3,16.6,31,0.00,,,0.00,WUHU216HW,2013-07-05 11:18:00,
2013-07-05 05:19:00,68.8,36.8,29.69,WNW,293,12.3,16.6,31,0.00,,,0.00,WUHU216HW,2013-07-05 11:19:00,
2013-07-05 05:23:00,68.8,36.8,29.69,NW,315,12.1,15.0,31,0.00,,,0.00,WUHU216HW,2013-07-05 11:23:00,
2013-07-05 05:24:00,68.6,36.7,29.69,NW,315,10.5,14.3,31,0.00,,,0.00,WUHU216HW,2013-07-05 11:24:00,
2013-07-05 05:25:00,68.6,36.7,29.69,NNW,338,9.8,14.3,31,0.00,,,0.00,WUHU216HW,2013-07-05 11:25:00,
2013-07-05 05:29:00,68.6,36.7,29.69,NNW,338,7.6,14.3,31,0.00,,,0.00,WUHU216HW,2013-07-05 11:29:00,
2013-07-05 05:30:00,68.0,38.4,29.69,North,0,6.7,14.3,34,0.00,,,0.00,WUHU216HW,2013-07-05 11:30:00,
2013-07-05 05:32:00,67.0,38.3,29.69,NNW,338,8.9,12.1,35,0.00,,,0.00,WUHU216HW,2013-07-05 11:32:00,
2013-07-05 05:34:00,66.2,38.3,29.69,NNW,338,8.7,12.1,36,0.00,,,0.00,WUHU216HW,2013-07-05 11:34:00,
2013-07-05 05:36:00,65.9,38.7,29.69,NW,315,7.6,12.1,37,0.00,,,0.00,WUHU216HW,2013-07-05 11:36:00,
2013-07-05 05:37:00,65.7,37.9,29.69,NNW,338,10.1,12.1,36,0.00,,,0.00,WUHU216HW,2013-07-05 11:37:00,
2013-07-05 05:39:00,65.5,38.4,29.69,NNW,338,9.4,12.1,37,0.00,,,0.00,WUHU216HW,2013-07-05 11:39:00,
2013-07-05 05:41:00,65.2,38.1,29.69,NNW,338,10.7,12.1,37,0.00,,,0.00,WUHU216HW,2013-07-05 11:41:00,
2013-07-05 05:42:00,65.2,38.1,29.69,NNW,338,7.4,12.1,37,0.00,,,0.00,WUHU216HW,2013-07-05 11:42:00,
2013-07-05 05:44:00,64.8,38.5,29.69,NNW,338,7.8,12.1,38,0.00,,,0.00,WUHU216HW,2013-07-05 11:44:00,
2013-07-05 05:45:00,64.8,38.5,29.69,NNW,338,7.8,12.1,38,0.00,,,0.00,WUHU216HW,2013-07-05 11:45:00,
2013-07-05 05:46:00,64.6,39.1,29.70,NNW,338,6.9,12.1,39,0.00,,,0.00,WUHU216HW,2013-07-05 11:46:00,
2013-07-05 05:48:00,64.4,38.9,29.70,NNW,338,8.5,12.1,39,0.00,,,0.00,WUHU216HW,2013-07-05 11:48:00,
2013-07-05 05:50:00,64.1,38.5,29.70,NNW,338,9.8,12.1,39,0.00,,,0.00,WUHU216HW,2013-07-05 11:50:00,
2013-07-05 05:52:00,64.1,39.2,29.70,North,0,10.7,11.0,40,0.00,,,0.00,WUHU216HW,2013-07-05 11:52:00,
2013-07-05 05:55:00,63.5,39.3,29.70,North,0,7.8,10.7,41,0.00,,,0.00,WUHU216HW,2013-07-05 11:55:00,
2013-07-05 05:56:00,63.5,39.3,29.70,North,0,8.7,10.7,41,0.00,,,0.00,WUHU216HW,2013-07-05 11:56:00,
2013-07-05 05:58:00,63.4,39.3,29.70,North,0,7.6,10.7,41,0.00,,,0.00,WUHU216HW,2013-07-05 11:58:00,
2013-07-05 06:00:00,63.2,39.1,29.70,North,0,6.3,10.7,41,0.00,,,0.00,WUHU216HW,2013-07-05 12:00:00,
2013-07-05 06:01:00,63.2,39.1,29.70,North,0,7.4,10.7,41,0.00,,,0.00,WUHU216HW,2013-07-05 12:01:00,
2013-07-05 06:02:00,63.0,38.9,29.70,NNW,338,6.5,10.7,41,0.00,,,0.00,WUHU216HW,2013-07-05 12:02:00,
2013-07-05 06:04:00,63.4,39.3,29.70,NNW,338,6.0,9.8,41,0.00,,,0.00,WUHU216HW,2013-07-05 12:04:00,
2013-07-05 06:07:00,64.1,37.8,29.70,NNW,338,11.0,14.3,38,0.00,,,0.00,WUHU216HW,2013-07-05 12:07:00,
2013-07-05 06:09:00,64.6,38.4,29.70,NNW,338,10.3,14.3,38,0.00,,,0.00,WUHU216HW,2013-07-05 12:09:00,
2013-07-05 06:12:00,65.2,37.4,29.70,NW,315,8.7,14.3,36,0.00,,,0.00,WUHU216HW,2013-07-05 12:12:00,
2013-07-05 06:13:00,65.2,37.4,29.70,NNW,338,9.2,14.3,36,0.00,,,0.00,WUHU216HW,2013-07-05 12:13:00,
2013-07-05 06:15:00,65.7,37.9,29.70,NNW,338,5.4,13.6,36,0.00,,,0.00,WUHU216HW,2013-07-05 12:15:00,
2013-07-05 06:18:00,65.7,37.2,29.70,NW,315,10.1,13.6,35,0.00,,,0.00,WUHU216HW,2013-07-05 12:18:00,
2013-07-05 06:21:00,65.7,36.5,29.71,NW,315,9.2,13.6,34,0.00,,,0.00,WUHU216HW,2013-07-05 12:21:00,
2013-07-05 06:23:00,65.9,36.5,29.70,NW,315,10.5,14.5,34,0.00,,,0.00,WUHU216HW,2013-07-05 12:23:00,
2013-07-05 06:24:00,65.9,36.5,29.70,NW,315,10.5,14.5,34,0.00,,,0.00,WUHU216HW,2013-07-05 12:24:00,
2013-07-05 06:26:00,65.9,36.5,29.71,NW,315,11.9,14.5,34,0.00,,,0.00,WUHU216HW,2013-07-05 12:26:00,
2013-07-05 06:29:00,65.9,36.5,29.70,NW,315,9.6,14.5,34,0.00,,,0.00,WUHU216HW,2013-07-05 12:29:00,
2013-07-05 06:32:00,66.1,36.7,29.70,NW,315,15.7,15.9,34,0.00,,,0.00,WUHU216HW,2013-07-05 12:32:00,
2013-07-05 06:34:00,66.2,36.9,29.70,NNW,338,13.0,15.9,34,0.00,,,0.00,WUHU216HW,2013-07-05 12:34:00,
2013-07-05 06:35:00,66.2,37.6,29.70,NW,315,13.4,15.9,35,0.00,,,0.00,WUHU216HW,2013-07-05 12:35:00,
2013-07-05 06:37:00,66.2,36.9,29.70,NW,315,14.3,15.9,34,0.00,,,0.00,WUHU216HW,2013-07-05 12:37:00,
2013-07-05 06:39:00,66.6,37.2,29.70,NW,315,13.4,15.9,34,0.00,,,0.00,WUHU216HW,2013-07-05 12:39:00,
2013-07-05 06:40:00,66.6,37.2,29.70,NW,315,13.4,15.9,34,0.00,,,0.00,WUHU216HW,2013-07-05 12:40:00,
2013-07-05 06:43:00,66.8,37.4,29.71,WNW,293,11.2,19.0,34,0.00,,,0.00,WUHU216HW,2013-07-05 12:43:00,
2013-07-05 06:45:00,67.0,36.8,29.71,NNW,338,14.8,19.0,33,0.00,,,0.00,WUHU216HW,2013-07-05 12:45:00,
2013-07-05 06:49:00,67.3,37.1,29.71,NW,315,8.7,19.0,33,0.00,,,0.00,WUHU216HW,2013-07-05 12:49:00,
2013-07-05 06:50:00,67.3,37.1,29.71,NW,315,12.3,19.0,33,0.00,,,0.00,WUHU216HW,2013-07-05 12:50:00,
2013-07-05 06:54:00,67.5,37.3,29.71,NW,315,12.1,15.0,33,0.00,,,0.00,WUHU216HW,2013-07-05 12:54:00,
2013-07-05 06:56:00,67.5,37.3,29.71,NW,315,13.9,15.0,33,0.00,,,0.00,WUHU216HW,2013-07-05 12:56:00,
2013-07-05 06:59:00,67.7,37.4,29.71,NW,315,13.6,15.7,33,0.00,,,0.00,WUHU216HW,2013-07-05 12:59:00,
2013-07-05 07:01:00,68.0,37.7,29.71,NW,315,11.0,15.7,33,0.00,,,0.00,WUHU216HW,2013-07-05 13:01:00,
2013-07-05 07:02:00,68.0,37.7,29.71,NNW,338,11.4,15.7,33,0.00,,,0.00,WUHU216HW,2013-07-05 13:02:00,
2013-07-05 07:04:00,68.2,37.8,29.71,NW,315,11.6,15.7,33,0.00,,,0.00,WUHU216HW,2013-07-05 13:04:00,
2013-07-05 07:07:00,68.4,38.0,29.71,NNW,338,10.1,15.7,33,0.00,,,0.00,WUHU216HW,2013-07-05 13:07:00,
2013-07-05 07:11:00,68.8,38.4,29.71,NNW,338,8.9,15.7,33,0.00,,,0.00,WUHU216HW,2013-07-05 13:11:00,
2013-07-05 07:13:00,68.9,37.7,29.71,NNW,338,9.8,15.7,32,0.00,,,0.00,WUHU216HW,2013-07-05 13:13:00,
2013-07-05 07:16:00,69.1,37.9,29.71,North,0,8.1,15.7,32,0.00,,,0.00,WUHU216HW,2013-07-05 13:16:00,
2013-07-05 07:18:00,68.9,37.0,29.71,NNW,338,9.4,14.1,31,0.00,,,0.00,WUHU216HW,2013-07-05 13:18:00,
2013-07-05 07:23:00,68.8,36.1,29.71,NNW,338,12.8,15.4,30,0.00,,,0.00,WUHU216HW,2013-07-05 13:23:00,
2013-07-05 07:28:00,68.6,35.9,29.72,NW,315,14.8,17.0,30,0.00,,,0.00,WUHU216HW,2013-07-05 13:28:00,
2013-07-05 07:33:00,69.1,35.5,29.72,NNW,338,15.4,17.2,29,0.00,,,0.00,WUHU216HW,2013-07-05 13:33:00,
2013-07-05 07:34:00,69.1,35.5,29.72,NNW,338,16.1,17.2,29,0.00,,,0.00,WUHU216HW,2013-07-05 13:34:00,
2013-07-05 07:38:00,70.0,36.3,29.72,NNW,338,14.8,17.2,29,0.00,,,0.00,WUHU216HW,2013-07-05 13:38:00,
2013-07-05 07:39:00,70.2,36.4,29.72,NNW,338,10.7,16.1,29,0.00,,,0.00,WUHU216HW,2013-07-05 13:39:00,
2013-07-05 07:40:00,70.2,36.4,29.72,NNW,338,10.3,16.1,29,0.00,,,0.00,WUHU216HW,2013-07-05 13:40:00,
2013-07-05 07:45:00,69.8,35.1,29.72,NNW,338,12.8,16.1,28,0.00,,,0.00,WUHU216HW,2013-07-05 13:45:00,
2013-07-05 07:46:00,69.7,35.9,29.72,NNW,338,10.7,15.0,29,0.00,,,0.00,WUHU216HW,2013-07-05 13:46:00,
2013-07-05 07:50:00,69.5,35.7,29.72,North,0,8.5,14.5,29,0.00,,,0.00,WUHU216HW,2013-07-05 13:50:00,
2013-07-05 07:51:00,69.3,36.6,29.73,NNW,338,7.6,14.3,30,0.00,,,0.00,WUHU216HW,2013-07-05 13:51:00,
2013-07-05 07:56:00,68.6,36.7,29.73,North,0,6.3,13.2,31,0.00,,,0.00,WUHU216HW,2013-07-05 13:56:00,
2013-07-05 07:57:00,68.4,37.3,29.73,North,0,5.1,12.8,32,0.00,,,0.00,WUHU216HW,2013-07-05 13:57:00,
2013-07-05 08:01:00,68.0,36.9,29.73,North,0,6.0,8.5,32,0.00,,,0.00,WUHU216HW,2013-07-05 14:01:00,
2013-07-05 08:02:00,67.9,36.8,29.73,North,0,5.1,8.5,32,0.00,,,0.00,WUHU216HW,2013-07-05 14:02:00,
2013-07-05 08:03:00,67.9,37.5,29.73,NNW,338,7.8,8.1,33,0.00,,,0.00,WUHU216HW,2013-07-05 14:03:00,
2013-07-05 08:07:00,67.7,37.4,29.73,NNW,338,6.0,8.1,33,0.00,,,0.00,WUHU216HW,2013-07-05 14:07:00,
2013-07-05 08:08:00,67.7,38.1,29.73,NNW,338,5.8,8.1,34,0.00,,,0.00,WUHU216HW,2013-07-05 14:08:00,
2013-07-05 08:12:00,67.5,38.0,29.73,NNW,338,3.8,8.1,34,0.00,,,0.00,WUHU216HW,2013-07-05 14:12:00,
2013-07-05 08:13:00,67.5,38.0,29.73,NNW,338,3.4,8.1,34,0.00,,,0.00,WUHU216HW,2013-07-05 14:13:00,
2013-07-05 08:15:00,67.7,38.1,29.73,North,0,2.2,8.1,34,0.00,,,0.00,WUHU216HW,2013-07-05 14:15:00,
2013-07-05 08:19:00,67.9,37.5,29.73,North,0,1.3,6.0,33,0.00,,,0.00,WUHU216HW,2013-07-05 14:19:00,
2013-07-05 08:20:00,67.9,37.5,29.73,NNE,23,3.6,4.7,33,0.00,,,0.00,WUHU216HW,2013-07-05 14:20:00,
2013-07-05 08:25:00,68.0,40.6,29.73,NNE,23,6.7,6.7,37,0.00,,,0.00,WUHU216HW,2013-07-05 14:25:00,
2013-07-05 08:27:00,68.4,38.7,29.73,NE,45,3.8,7.8,34,0.00,,,0.00,WUHU216HW,2013-07-05 14:27:00,
2013-07-05 08:28:00,68.6,39.6,29.73,North,0,3.4,7.8,35,0.00,,,0.00,WUHU216HW,2013-07-05 14:28:00,
2013-07-05 08:30:00,68.6,39.6,29.73,NE,45,3.4,7.8,35,0.00,,,0.00,WUHU216HW,2013-07-05 14:30:00,
2013-07-05 08:31:00,68.8,39.8,29.73,NE,45,5.1,7.8,35,0.00,,,0.00,WUHU216HW,2013-07-05 14:31:00,
2013-07-05 08:32:00,68.9,40.0,29.73,NE,45,2.2,7.8,35,0.00,,,0.00,WUHU216HW,2013-07-05 14:32:00,
2013-07-05 08:34:00,69.3,39.5,29.73,NE,45,4.9,7.8,34,0.00,,,0.00,WUHU216HW,2013-07-05 14:34:00,
2013-07-05 08:35:00,69.1,39.4,29.73,NE,45,5.1,7.8,34,0.00,,,0.00,WUHU216HW,2013-07-05 14:35:00,
2013-07-05 08:37:00,69.7,39.2,29.74,NNE,23,2.2,5.4,33,0.00,,,0.00,WUHU216HW,2013-07-05 14:37:00,
2013-07-05 08:39:00,69.8,38.5,29.74,NE,45,3.8,5.4,32,0.00,,,0.00,WUHU216HW,2013-07-05 14:39:00,
2013-07-05 08:41:00,69.8,37.1,29.74,NE,45,4.5,5.4,30,0.00,,,0.00,WUHU216HW,2013-07-05 14:41:00,
2013-07-05 08:42:00,70.0,38.0,29.73,NE,45,5.6,5.6,31,0.00,,,0.00,WUHU216HW,2013-07-05 14:42:00,
2013-07-05 08:44:00,70.0,42.4,29.74,NE,45,10.1,12.3,37,0.00,,,0.00,WUHU216HW,2013-07-05 14:44:00,
2013-07-05 08:45:00,69.8,42.2,29.74,ENE,68,10.1,12.8,37,0.00,,,0.00,WUHU216HW,2013-07-05 14:45:00,
2013-07-05 08:47:00,69.3,42.5,29.74,ENE,68,7.6,12.8,38,0.00,,,0.00,WUHU216HW,2013-07-05 14:47:00,
2013-07-05 08:48:00,68.6,41.9,29.74,ENE,68,9.8,12.8,38,0.00,,,0.00,WUHU216HW,2013-07-05 14:48:00,
2013-07-05 08:49:00,68.4,42.4,29.73,ENE,68,9.4,12.8,39,0.00,,,0.00,WUHU216HW,2013-07-05 14:49:00,
2013-07-05 08:50:00,68.4,42.4,29.73,ENE,68,9.4,12.8,39,0.00,,,0.00,WUHU216HW,2013-07-05 14:50:00,
2013-07-05 08:52:00,68.0,42.1,29.74,NE,45,8.3,12.8,39,0.00,,,0.00,WUHU216HW,2013-07-05 14:52:00,
2013-07-05 08:54:00,68.0,41.4,29.74,NE,45,9.2,12.8,38,0.00,,,0.00,WUHU216HW,2013-07-05 14:54:00,
2013-07-05 08:55:00,68.2,42.3,29.74,NE,45,7.4,12.8,39,0.00,,,0.00,WUHU216HW,2013-07-05 14:55:00,
2013-07-05 08:57:00,68.4,41.7,29.73,NE,45,8.7,11.2,38,0.00,,,0.00,WUHU216HW,2013-07-05 14:57:00,
2013-07-05 08:59:00,68.2,42.3,29.73,ENE,68,5.1,9.4,39,0.00,,,0.00,WUHU216HW,2013-07-05 14:59:00,
2013-07-05 09:00:00,68.2,41.5,29.73,NE,45,4.3,9.4,38,0.00,,,0.00,WUHU216HW,2013-07-05 15:00:00,
2013-07-05 09:03:00,68.4,41.7,29.73,ENE,68,3.6,9.4,38,0.00,,,0.00,WUHU216HW,2013-07-05 15:03:00,
2013-07-05 09:04:00,68.6,42.6,29.73,NE,45,4.9,9.4,39,0.00,,,0.00,WUHU216HW,2013-07-05 15:04:00,
2013-07-05 09:06:00,68.8,41.3,29.73,NNE,23,2.5,8.7,37,0.00,,,0.00,WUHU216HW,2013-07-05 15:06:00,
2013-07-05 09:08:00,68.9,42.2,29.73,North,0,3.6,8.7,38,0.00,,,0.00,WUHU216HW,2013-07-05 15:08:00,
2013-07-05 09:09:00,69.3,42.5,29.73,NE,45,2.9,6.7,38,0.00,,,0.00,WUHU216HW,2013-07-05 15:09:00,
2013-07-05 09:11:00,69.5,42.7,29.73,NE,45,3.1,5.1,38,0.00,,,0.00,WUHU216HW,2013-07-05 15:11:00,
2013-07-05 09:13:00,69.7,42.1,29.73,ENE,68,8.1,8.1,37,0.00,,,0.00,WUHU216HW,2013-07-05 15:13:00,
2013-07-05 09:14:00,69.8,43.0,29.73,East,90,7.2,8.1,38,0.00,,,0.00,WUHU216HW,2013-07-05 15:14:00,
2013-07-05 09:17:00,70.2,42.6,29.73,ENE,68,8.3,8.3,37,0.00,,,0.00,WUHU216HW,2013-07-05 15:17:00,
2013-07-05 09:18:00,70.2,43.3,29.73,ENE,68,5.1,8.3,38,0.00,,,0.00,WUHU216HW,2013-07-05 15:18:00,
2013-07-05 09:19:00,70.4,42.8,29.73,ENE,68,7.6,8.3,37,0.00,,,0.00,WUHU216HW,2013-07-05 15:19:00,
2013-07-05 09:23:00,70.7,42.3,29.73,NE,45,6.7,9.2,36,0.00,,,0.00,WUHU216HW,2013-07-05 15:23:00,
2013-07-05 09:24:00,70.7,41.6,29.73,NE,45,6.9,9.2,35,0.00,,,0.00,WUHU216HW,2013-07-05 15:24:00,
2013-07-05 09:25:00,70.7,42.3,29.73,NNE,23,7.2,9.2,36,0.00,,,0.00,WUHU216HW,2013-07-05 15:25:00,
2013-07-05 09:28:00,71.1,42.0,29.73,NE,45,7.6,9.2,35,0.00,,,0.00,WUHU216HW,2013-07-05 15:28:00,
2013-07-05 09:29:00,70.9,41.8,29.73,NE,45,4.5,9.2,35,0.00,,,0.00,WUHU216HW,2013-07-05 15:29:00,
2013-07-05 09:30:00,70.9,41.8,29.73,ENE,68,5.4,9.2,35,0.00,,,0.00,WUHU216HW,2013-07-05 15:30:00,
2013-07-05 09:31:00,70.9,43.2,29.73,NNE,23,7.4,9.2,37,0.00,,,0.00,WUHU216HW,2013-07-05 15:31:00,
2013-07-05 09:33:00,71.1,41.1,29.73,NE,45,5.4,9.2,34,0.00,,,0.00,WUHU216HW,2013-07-05 15:33:00,
2013-07-05 09:34:00,71.1,42.0,29.73,NE,45,5.1,9.2,35,0.00,,,0.00,WUHU216HW,2013-07-05 15:34:00,
2013-07-05 09:35:00,71.1,41.1,29.73,ENE,68,6.3,9.2,34,0.00,,,0.00,WUHU216HW,2013-07-05 15:35:00,
2013-07-05 09:36:00,71.1,42.0,29.73,NE,45,6.9,9.2,35,0.00,,,0.00,WUHU216HW,2013-07-05 15:36:00,
2013-07-05 09:38:00,71.3,39.9,29.73,North,0,5.4,9.2,32,0.00,,,0.00,WUHU216HW,2013-07-05 15:38:00,
2013-07-05 09:39:00,71.3,39.2,29.73,North,0,6.3,9.2,31,0.00,,,0.00,WUHU216HW,2013-07-05 15:39:00,
2013-07-05 09:40:00,71.6,37.7,29.73,North,0,5.6,9.2,29,0.00,,,0.00,WUHU216HW,2013-07-05 15:40:00,
2013-07-05 09:41:00,71.6,37.7,29.73,North,0,4.0,9.2,29,0.00,,,0.00,WUHU216HW,2013-07-05 15:41:00,
2013-07-05 09:44:00,71.8,38.9,29.73,North,0,4.7,9.2,30,0.00,,,0.00,WUHU216HW,2013-07-05 15:44:00,
2013-07-05 09:46:00,72.2,41.4,29.73,NE,45,7.8,11.4,33,0.00,,,0.00,WUHU216HW,2013-07-05 15:46:00,
2013-07-05 09:49:00,71.8,41.8,29.73,ENE,68,8.1,11.4,34,0.00,,,0.00,WUHU216HW,2013-07-05 15:49:00,
2013-07-05 09:51:00,71.8,41.0,29.73,NE,45,14.8,14.8,33,0.00,,,0.00,WUHU216HW,2013-07-05 15:51:00,
2013-07-05 09:54:00,71.6,41.0,29.73,NE,45,10.5,14.8,33,0.00,,,0.00,WUHU216HW,2013-07-05 15:54:00,
2013-07-05 09:55:00,71.5,40.1,29.73,NNE,23,6.3,14.8,32,0.00,,,0.00,WUHU216HW,2013-07-05 15:55:00,
2013-07-05 09:56:00,71.5,38.5,29.73,North,0,4.7,14.8,30,0.00,,,0.00,WUHU216HW,2013-07-05 15:56:00,
2013-07-05 09:59:00,71.6,39.4,29.73,North,0,11.6,14.8,31,0.00,,,0.00,WUHU216HW,2013-07-05 15:59:00,
2013-07-05 10:00:00,71.8,41.0,29.73,NNE,23,5.6,14.8,33,0.00,,,0.00,WUHU216HW,2013-07-05 16:00:00,
2013-07-05 10:01:00,72.0,39.7,29.73,NNE,23,6.9,14.8,31,0.00,,,0.00,WUHU216HW,2013-07-05 16:01:00,
2013-07-05 10:04:00,72.4,40.8,29.73,ENE,68,9.6,11.6,32,0.00,,,0.00,WUHU216HW,2013-07-05 16:04:00,
2013-07-05 10:05:00,72.4,40.8,29.73,NE,45,10.7,11.6,32,0.00,,,0.00,WUHU216HW,2013-07-05 16:05:00,
2013-07-05 10:06:00,72.4,40.1,29.73,NE,45,9.8,11.6,31,0.00,,,0.00,WUHU216HW,2013-07-05 16:06:00,
2013-07-05 10:07:00,72.4,40.1,29.73,NE,45,9.8,11.6,31,0.00,,,0.00,WUHU216HW,2013-07-05 16:07:00,
2013-07-05 10:09:00,72.2,40.6,29.73,NE,45,8.7,11.6,32,0.00,,,0.00,WUHU216HW,2013-07-05 16:09:00,
2013-07-05 10:10:00,72.2,41.4,29.73,NNE,23,15.4,15.4,33,0.00,,,0.00,WUHU216HW,2013-07-05 16:10:00,
2013-07-05 10:11:00,72.4,41.5,29.73,NE,45,8.5,15.4,33,0.00,,,0.00,WUHU216HW,2013-07-05 16:11:00,
2013-07-05 10:12:00,72.4,42.3,29.73,NE,45,10.1,15.4,34,0.00,,,0.00,WUHU216HW,2013-07-05 16:12:00,
2013-07-05 10:14:00,72.7,41.0,29.73,NNE,23,8.3,15.4,32,0.00,,,0.00,WUHU216HW,2013-07-05 16:14:00,
2013-07-05 10:15:00,72.7,41.0,29.73,NNE,23,8.3,15.4,32,0.00,,,0.00,WUHU216HW,2013-07-05 16:15:00,
2013-07-05 10:16:00,72.7,41.0,29.72,NNE,23,8.3,15.4,32,0.00,,,0.00,WUHU216HW,2013-07-05 16:16:00,
2013-07-05 10:17:00,73.1,39.9,29.72,North,0,10.5,15.4,30,0.00,,,0.00,WUHU216HW,2013-07-05 16:17:00,
2013-07-05 10:19:00,72.9,40.5,29.72,North,0,10.5,15.4,31,0.00,,,0.00,WUHU216HW,2013-07-05 16:19:00,
2013-07-05 10:20:00,73.1,40.6,29.72,NNE,23,9.2,13.0,31,0.00,,,0.00,WUHU216HW,2013-07-05 16:20:00,
2013-07-05 10:21:00,73.1,39.9,29.72,NNE,23,13.2,13.2,30,0.00,,,0.00,WUHU216HW,2013-07-05 16:21:00,
2013-07-05 10:22:00,73.3,40.8,29.72,North,0,8.5,13.2,31,0.00,,,0.00,WUHU216HW,2013-07-05 16:22:00,
2013-07-05 10:24:00,73.3,40.0,29.72,North,0,10.7,13.2,30,0.00,,,0.00,WUHU216HW,2013-07-05 16:24:00,
2013-07-05 10:25:00,73.1,39.9,29.72,NE,45,9.6,13.2,30,0.00,,,0.00,WUHU216HW,2013-07-05 16:25:00,
2013-07-05 10:26:00,73.1,39.9,29.72,North,0,9.2,13.2,30,0.00,,,0.00,WUHU216HW,2013-07-05 16:26:00,
2013-07-05 10:27:00,73.3,40.8,29.72,NNE,23,6.0,13.2,31,0.00,,,0.00,WUHU216HW,2013-07-05 16:27:00,
2013-07-05 10:29:00,73.4,40.9,29.72,NNE,23,11.2,13.2,31,0.00,,,0.00,WUHU216HW,2013-07-05 16:29:00,
2013-07-05 10:30:00,73.6,40.3,29.72,North,0,13.4,13.4,30,0.00,,,0.00,WUHU216HW,2013-07-05 16:30:00,
2013-07-05 10:32:00,73.6,40.3,29.72,NNE,23,12.8,13.4,30,0.00,,,0.00,WUHU216HW,2013-07-05 16:32:00,
2013-07-05 10:34:00,73.4,40.1,29.72,North,0,4.0,16.8,30,0.00,,,0.00,WUHU216HW,2013-07-05 16:34:00,
2013-07-05 10:36:00,73.3,40.0,29.72,North,0,7.4,16.8,30,0.00,,,0.00,WUHU216HW,2013-07-05 16:36:00,
2013-07-05 10:37:00,73.4,40.1,29.72,North,0,8.5,16.8,30,0.00,,,0.00,WUHU216HW,2013-07-05 16:37:00,
2013-07-05 10:40:00,73.4,41.7,29.72,North,0,6.5,16.8,32,0.00,,,0.00,WUHU216HW,2013-07-05 16:40:00,
2013-07-05 10:41:00,73.6,41.0,29.72,NNW,338,7.2,16.8,31,0.00,,,0.00,WUHU216HW,2013-07-05 16:41:00,
2013-07-05 10:42:00,73.6,40.3,29.72,NNW,338,10.5,16.8,30,0.00,,,0.00,WUHU216HW,2013-07-05 16:42:00,
2013-07-05 10:45:00,74.0,40.6,29.72,NNW,338,6.0,11.0,30,0.00,,,0.00,WUHU216HW,2013-07-05 16:45:00,
2013-07-05 10:46:00,74.2,40.8,29.72,NNW,338,9.4,11.0,30,0.00,,,0.00,WUHU216HW,2013-07-05 16:46:00,
2013-07-05 10:47:00,74.3,40.0,29.72,North,0,8.5,11.4,29,0.00,,,0.00,WUHU216HW,2013-07-05 16:47:00,
2013-07-05 10:50:00,74.2,39.8,29.72,NNW,338,8.7,11.4,29,0.00,,,0.00,WUHU216HW,2013-07-05 16:50:00,
2013-07-05 10:51:00,74.2,39.8,29.72,North,0,4.9,11.4,29,0.00,,,0.00,WUHU216HW,2013-07-05 16:51:00,
2013-07-05 10:52:00,74.0,39.6,29.72,NNW,338,10.3,11.4,29,0.00,,,0.00,WUHU216HW,2013-07-05 16:52:00,
2013-07-05 10:53:00,74.0,39.6,29.72,North,0,9.8,11.4,29,0.00,,,0.00,WUHU216HW,2013-07-05 16:53:00,
2013-07-05 10:56:00,73.8,39.4,29.72,North,0,5.6,11.4,29,0.00,,,0.00,WUHU216HW,2013-07-05 16:56:00,
2013-07-05 10:57:00,73.6,40.3,29.72,NNW,338,6.3,11.4,30,0.00,,,0.00,WUHU216HW,2013-07-05 16:57:00,
2013-07-05 10:58:00,73.6,40.3,29.72,NNW,338,6.3,11.4,30,0.00,,,0.00,WUHU216HW,2013-07-05 16:58:00,
2013-07-05 11:01:00,74.0,39.6,29.72,NNW,338,10.5,10.7,29,0.00,,,0.00,WUHU216HW,2013-07-05 17:01:00,
2013-07-05 11:02:00,74.2,39.8,29.72,NNW,338,6.5,10.7,29,0.00,,,0.00,WUHU216HW,2013-07-05 17:02:00,
2013-07-05 11:03:00,74.2,39.8,29.72,North,0,12.1,12.1,29,0.00,,,0.00,WUHU216HW,2013-07-05 17:03:00,
2013-07-05 11:06:00,74.3,40.0,29.72,NNW,338,6.9,12.1,29,0.00,,,0.00,WUHU216HW,2013-07-05 17:06:00,
2013-07-05 11:07:00,74.3,41.0,29.72,North,0,8.3,12.1,30,0.00,,,0.00,WUHU216HW,2013-07-05 17:07:00,
2013-07-05 11:08:00,74.5,40.1,29.72,NNW,338,12.8,12.8,29,0.00,,,0.00,WUHU216HW,2013-07-05 17:08:00,
2013-07-05 11:11:00,74.7,40.2,29.71,North,0,6.5,12.8,29,0.00,,,0.00,WUHU216HW,2013-07-05 17:11:00,
2013-07-05 11:12:00,74.7,39.3,29.72,NNW,338,9.8,12.8,28,0.00,,,0.00,WUHU216HW,2013-07-05 17:12:00,
2013-07-05 11:13:00,74.9,39.4,29.71,North,0,8.5,12.8,28,0.00,,,0.00,WUHU216HW,2013-07-05 17:13:00,
2013-07-05 11:16:00,75.1,39.5,29.71,NNW,338,11.0,12.8,28,0.00,,,0.00,WUHU216HW,2013-07-05 17:16:00,
2013-07-05 11:17:00,75.2,39.7,29.71,NNW,338,6.0,12.8,28,0.00,,,0.00,WUHU216HW,2013-07-05 17:17:00,
2013-07-05 11:18:00,75.2,39.7,29.71,NNW,338,7.8,11.6,28,0.00,,,0.00,WUHU216HW,2013-07-05 17:18:00,
2013-07-05 11:21:00,75.2,38.7,29.71,North,0,8.5,11.6,27,0.00,,,0.00,WUHU216HW,2013-07-05 17:21:00,
2013-07-05 11:22:00,75.1,39.5,29.71,North,0,8.1,13.0,28,0.00,,,0.00,WUHU216HW,2013-07-05 17:22:00,
2013-07-05 11:23:00,75.1,38.5,29.71,North,0,7.2,13.0,27,0.00,,,0.00,WUHU216HW,2013-07-05 17:23:00,
2013-07-05 11:24:00,74.9,38.3,29.71,North,0,6.5,13.0,27,0.00,,,0.00,WUHU216HW,2013-07-05 17:24:00,
2013-07-05 11:26:00,75.2,37.6,29.71,North,0,4.3,13.0,26,0.00,,,0.00,WUHU216HW,2013-07-05 17:26:00,
2013-07-05 11:27:00,75.2,38.7,29.71,North,0,5.1,13.0,27,0.00,,,0.00,WUHU216HW,2013-07-05 17:27:00,
2013-07-05 11:28:00,75.4,37.8,29.71,North,0,5.4,13.0,26,0.00,,,0.00,WUHU216HW,2013-07-05 17:28:00,
2013-07-05 11:29:00,75.6,38.0,29.71,NNW,338,6.5,13.0,26,0.00,,,0.00,WUHU216HW,2013-07-05 17:29:00,
2013-07-05 11:31:00,75.8,40.1,29.71,NNE,23,8.7,13.0,28,0.00,,,0.00,WUHU216HW,2013-07-05 17:31:00,
2013-07-05 11:32:00,75.8,39.2,29.71,NNW,338,5.8,11.0,27,0.00,,,0.00,WUHU216HW,2013-07-05 17:32:00,
2013-07-05 11:33:00,75.8,40.1,29.71,NNW,338,5.8,11.0,28,0.00,,,0.00,WUHU216HW,2013-07-05 17:33:00,
2013-07-05 11:34:00,75.6,38.0,29.71,NNW,338,9.8,11.0,26,0.00,,,0.00,WUHU216HW,2013-07-05 17:34:00,
2013-07-05 11:36:00,75.6,40.1,29.71,North,0,7.4,11.0,28,0.00,,,0.00,WUHU216HW,2013-07-05 17:36:00,
2013-07-05 11:37:00,75.6,38.0,29.71,North,0,8.3,11.0,26,0.00,,,0.00,WUHU216HW,2013-07-05 17:37:00,
2013-07-05 11:38:00,75.6,38.0,29.71,North,0,2.9,11.0,26,0.00,,,0.00,WUHU216HW,2013-07-05 17:38:00,
2013-07-05 11:39:00,75.6,38.0,29.71,North,0,5.8,11.0,26,0.00,,,0.00,WUHU216HW,2013-07-05 17:39:00,
2013-07-05 11:40:00,75.8,38.2,29.71,North,0,8.5,11.0,26,0.00,,,0.00,WUHU216HW,2013-07-05 17:40:00,
2013-07-05 11:41:00,75.8,38.2,29.71,North,0,8.1,10.3,26,0.00,,,0.00,WUHU216HW,2013-07-05 17:41:00,
2013-07-05 11:42:00,75.6,38.0,29.71,North,0,8.1,11.0,26,0.00,,,0.00,WUHU216HW,2013-07-05 17:42:00,
2013-07-05 11:43:00,75.4,37.8,29.71,NNW,338,10.3,11.0,26,0.00,,,0.00,WUHU216HW,2013-07-05 17:43:00,
2013-07-05 11:44:00,75.4,37.8,29.71,NNW,338,7.2,11.0,26,0.00,,,0.00,WUHU216HW,2013-07-05 17:44:00,
2013-07-05 11:45:00,75.4,38.9,29.71,NW,315,7.8,11.0,27,0.00,,,0.00,WUHU216HW,2013-07-05 17:45:00,
2013-07-05 11:46:00,75.6,39.0,29.71,NNE,23,9.2,11.0,27,0.00,,,0.00,WUHU216HW,2013-07-05 17:46:00,
2013-07-05 11:47:00,75.6,39.0,29.71,NNE,23,9.6,11.0,27,0.00,,,0.00,WUHU216HW,2013-07-05 17:47:00,
2013-07-05 11:48:00,75.8,40.1,29.71,North,0,5.6,12.8,28,0.00,,,0.00,WUHU216HW,2013-07-05 17:48:00,
2013-07-05 11:49:00,75.8,38.2,29.71,North,0,8.5,12.8,26,0.00,,,0.00,WUHU216HW,2013-07-05 17:49:00,
2013-07-05 11:50:00,76.0,38.3,29.71,NNW,338,12.8,12.8,26,0.00,,,0.00,WUHU216HW,2013-07-05 17:50:00,
2013-07-05 11:52:00,76.0,39.3,29.71,NW,315,7.2,12.8,27,0.00,,,0.00,WUHU216HW,2013-07-05 17:52:00,
2013-07-05 11:53:00,76.0,40.3,29.71,NNW,338,6.5,12.8,28,0.00,,,0.00,WUHU216HW,2013-07-05 17:53:00,
2013-07-05 11:54:00,76.0,38.3,29.71,North,0,7.4,12.8,26,0.00,,,0.00,WUHU216HW,2013-07-05 17:54:00,
2013-07-05 11:56:00,76.0,39.3,29.71,North,0,5.4,12.8,27,0.00,,,0.00,WUHU216HW,2013-07-05 17:56:00,
2013-07-05 11:57:00,76.0,38.3,29.71,North,0,6.3,12.8,26,0.00,,,0.00,WUHU216HW,2013-07-05 17:57:00,
2013-07-05 11:58:00,75.6,38.0,29.71,North,0,6.9,12.8,26,0.00,,,0.00,WUHU216HW,2013-07-05 17:58:00,
2013-07-05 11:59:00,75.4,39.9,29.71,North,0,4.9,12.8,28,0.00,,,0.00,WUHU216HW,2013-07-05 17:59:00,
2013-07-05 12:01:00,75.6,41.0,29.71,North,0,8.5,9.8,29,0.00,,,0.00,WUHU216HW,2013-07-05 18:01:00,
2013-07-05 12:02:00,75.8,40.1,29.71,North,0,8.5,9.8,28,0.00,,,0.00,WUHU216HW,2013-07-05 18:02:00,
2013-07-05 12:03:00,76.0,40.3,29.71,North,0,5.6,9.8,28,0.00,,,0.00,WUHU216HW,2013-07-05 18:03:00,
2013-07-05 12:04:00,76.1,40.5,29.71,NW,315,7.6,8.5,28,0.00,,,0.00,WUHU216HW,2013-07-05 18:04:00,
2013-07-05 12:05:00,76.1,40.5,29.71,NW,315,7.6,8.5,28,0.00,,,0.00,WUHU216HW,2013-07-05 18:05:00,
2013-07-05 12:06:00,76.7,40.0,29.71,NNW,338,9.8,9.8,27,0.00,,,0.00,WUHU216HW,2013-07-05 18:06:00,
2013-07-05 12:07:00,76.7,40.0,29.71,NNW,338,9.8,9.8,27,0.00,,,0.00,WUHU216HW,2013-07-05 18:07:00,
2013-07-05 12:08:00,77.0,39.3,29.70,North,0,8.5,11.6,26,0.00,,,0.00,WUHU216HW,2013-07-05 18:08:00,
2013-07-05 12:10:00,77.0,39.3,29.71,North,0,3.4,11.6,26,0.00,,,0.00,WUHU216HW,2013-07-05 18:10:00,
2013-07-05 12:11:00,76.9,39.1,29.71,NW,315,9.8,11.6,26,0.00,,,0.00,WUHU216HW,2013-07-05 18:11:00,
2013-07-05 12:12:00,76.9,41.1,29.70,North,0,8.3,11.6,28,0.00,,,0.00,WUHU216HW,2013-07-05 18:12:00,
2013-07-05 12:13:00,77.2,40.4,29.71,North,0,5.4,11.6,27,0.00,,,0.00,WUHU216HW,2013-07-05 18:13:00,
2013-07-05 12:15:00,77.0,39.3,29.71,West,270,3.6,11.6,26,0.00,,,0.00,WUHU216HW,2013-07-05 18:15:00,
2013-07-05 12:17:00,76.9,39.1,29.70,NNE,23,5.6,11.6,26,0.00,,,0.00,WUHU216HW,2013-07-05 18:17:00,
2013-07-05 12:19:00,77.0,39.3,29.70,North,0,8.7,11.4,26,0.00,,,0.00,WUHU216HW,2013-07-05 18:19:00,
2013-07-05 12:20:00,77.0,39.3,29.71,North,0,8.9,11.4,26,0.00,,,0.00,WUHU216HW,2013-07-05 18:20:00,
2013-07-05 12:22:00,77.2,41.4,29.70,North,0,6.9,10.7,28,0.00,,,0.00,WUHU216HW,2013-07-05 18:22:00,
2013-07-05 12:24:00,77.4,41.6,29.70,NNW,338,8.3,10.7,28,0.00,,,0.00,WUHU216HW,2013-07-05 18:24:00,
2013-07-05 12:25:00,77.6,39.6,29.70,NNW,338,7.6,10.7,26,0.00,,,0.00,WUHU216HW,2013-07-05 18:25:00,
2013-07-05 12:27:00,77.4,41.6,29.70,NNE,23,6.3,10.7,28,0.00,,,0.00,WUHU216HW,2013-07-05 18:27:00,
2013-07-05 12:28:00,77.4,39.5,29.70,North,0,6.5,8.9,26,0.00,,,0.00,WUHU216HW,2013-07-05 18:28:00,
2013-07-05 12:29:00,77.4,39.5,29.70,NNE,23,10.3,10.3,26,0.00,,,0.00,WUHU216HW,2013-07-05 18:29:00,
2013-07-05 12:30:00,77.4,39.5,29.70,NNE,23,12.8,13.0,26,0.00,,,0.00,WUHU216HW,2013-07-05 18:30:00,
2013-07-05 12:33:00,77.4,40.5,29.70,ENE,68,7.8,17.2,27,0.00,,,0.00,WUHU216HW,2013-07-05 18:33:00,
2013-07-05 12:34:00,77.4,39.5,29.70,NE,45,6.3,17.2,26,0.00,,,0.00,WUHU216HW,2013-07-05 18:34:00,
2013-07-05 12:35:00,77.4,41.6,29.70,NNE,23,4.5,17.2,28,0.00,,,0.00,WUHU216HW,2013-07-05 18:35:00,
2013-07-05 12:38:00,77.2,40.4,29.70,East,90,1.8,17.2,27,0.00,,,0.00,WUHU216HW,2013-07-05 18:38:00,
2013-07-05 12:39:00,77.2,39.3,29.70,NE,45,2.2,17.2,26,0.00,,,0.00,WUHU216HW,2013-07-05 18:39:00,
2013-07-05 12:40:00,77.4,41.6,29.70,NNW,338,4.7,17.2,28,0.00,,,0.00,WUHU216HW,2013-07-05 18:40:00,
2013-07-05 12:43:00,77.6,39.6,29.70,North,0,3.6,9.8,26,0.00,,,0.00,WUHU216HW,2013-07-05 18:43:00,
2013-07-05 12:44:00,77.6,39.6,29.70,North,0,3.8,8.1,26,0.00,,,0.00,WUHU216HW,2013-07-05 18:44:00,
2013-07-05 12:45:00,77.6,39.6,29.70,North,0,4.7,7.2,26,0.00,,,0.00,WUHU216HW,2013-07-05 18:45:00,
2013-07-05 12:46:00,77.4,39.5,29.70,North,0,4.0,7.2,26,0.00,,,0.00,WUHU216HW,2013-07-05 18:46:00,
2013-07-05 12:48:00,77.4,39.5,29.70,North,0,5.8,8.3,26,0.00,,,0.00,WUHU216HW,2013-07-05 18:48:00,
2013-07-05 12:49:00,77.6,39.6,29.70,NE,45,7.8,8.3,26,0.00,,,0.00,WUHU216HW,2013-07-05 18:49:00,
2013-07-05 12:51:00,77.6,41.8,29.70,North,0,5.4,8.3,28,0.00,,,0.00,WUHU216HW,2013-07-05 18:51:00,
2013-07-05 12:54:00,77.8,40.9,29.70,NW,315,4.9,8.7,27,0.00,,,0.00,WUHU216HW,2013-07-05 18:54:00,
2013-07-05 12:55:00,77.8,40.9,29.70,NW,315,2.7,8.7,27,0.00,,,0.00,WUHU216HW,2013-07-05 18:55:00,
2013-07-05 12:56:00,77.9,41.0,29.69,NNW,338,4.7,8.7,27,0.00,,,0.00,WUHU216HW,2013-07-05 18:56:00,
2013-07-05 12:59:00,78.7,40.5,29.69,NW,315,5.4,8.7,26,0.00,,,0.00,WUHU216HW,2013-07-05 18:59:00,
2013-07-05 13:00:00,78.8,40.7,29.69,NNW,338,5.4,8.7,26,0.00,,,0.00,WUHU216HW,2013-07-05 19:00:00,
2013-07-05 13:01:00,78.7,40.5,29.69,NNW,338,7.2,8.7,26,0.00,,,0.00,WUHU216HW,2013-07-05 19:01:00,
2013-07-05 13:04:00,78.1,40.1,29.70,North,0,5.1,7.2,26,0.00,,,0.00,WUHU216HW,2013-07-05 19:04:00,
2013-07-05 13:05:00,78.1,40.1,29.69,North,0,5.8,7.2,26,0.00,,,0.00,WUHU216HW,2013-07-05 19:05:00,
2013-07-05 13:06:00,77.9,40.0,29.69,NNW,338,8.7,8.7,26,0.00,,,0.00,WUHU216HW,2013-07-05 19:06:00,
2013-07-05 13:09:00,77.8,39.8,29.69,North,0,4.9,10.1,26,0.00,,,0.00,WUHU216HW,2013-07-05 19:09:00,
2013-07-05 13:10:00,77.8,39.8,29.69,NNE,23,2.5,10.1,26,0.00,,,0.00,WUHU216HW,2013-07-05 19:10:00,
2013-07-05 13:11:00,77.8,39.8,29.69,NNE,23,4.9,10.1,26,0.00,,,0.00,WUHU216HW,2013-07-05 19:11:00,
2013-07-05 13:14:00,78.1,40.1,29.69,North,0,4.0,10.1,26,0.00,,,0.00,WUHU216HW,2013-07-05 19:14:00,
2013-07-05 13:15:00,78.1,40.1,29.69,NNE,23,2.2,10.1,26,0.00,,,0.00,WUHU216HW,2013-07-05 19:15:00,
2013-07-05 13:16:00,78.3,40.2,29.69,NNE,23,3.6,10.1,26,0.00,,,0.00,WUHU216HW,2013-07-05 19:16:00,
2013-07-05 13:20:00,79.2,41.0,29.69,ENE,68,2.5,7.6,26,0.00,,,0.00,WUHU216HW,2013-07-05 19:20:00,
2013-07-05 13:21:00,79.4,40.1,29.69,NE,45,4.5,7.6,25,0.00,,,0.00,WUHU216HW,2013-07-05 19:21:00,
2013-07-05 13:22:00,79.4,40.1,29.69,NE,45,4.5,6.9,25,0.00,,,0.00,WUHU216HW,2013-07-05 19:22:00,
2013-07-05 13:25:00,79.6,40.2,29.69,ENE,68,6.0,11.4,25,0.00,,,0.00,WUHU216HW,2013-07-05 19:25:00,
2013-07-05 13:26:00,79.6,40.2,29.69,NNE,23,4.7,11.4,25,0.00,,,0.00,WUHU216HW,2013-07-05 19:26:00,
2013-07-05 13:27:00,79.4,41.1,29.69,NNE,23,4.7,11.4,26,0.00,,,0.00,WUHU216HW,2013-07-05 19:27:00,
2013-07-05 13:30:00,79.6,40.2,29.69,NNW,338,6.7,11.4,25,0.00,,,0.00,WUHU216HW,2013-07-05 19:30:00,
2013-07-05 13:31:00,79.6,40.2,29.69,NW,315,8.3,12.3,25,0.00,,,0.00,WUHU216HW,2013-07-05 19:31:00,
2013-07-05 13:32:00,79.6,40.2,29.69,West,270,5.4,12.3,25,0.00,,,0.00,WUHU216HW,2013-07-05 19:32:00,
2013-07-05 13:35:00,79.9,40.6,29.69,North,0,6.5,12.3,25,0.00,,,0.00,WUHU216HW,2013-07-05 19:35:00,
2013-07-05 13:36:00,80.1,40.8,29.69,NNW,338,5.8,12.3,25,0.00,,,0.00,WUHU216HW,2013-07-05 19:36:00,
2013-07-05 13:37:00,80.1,40.8,29.69,NW,315,6.9,12.3,25,0.00,,,0.00,WUHU216HW,2013-07-05 19:37:00,
2013-07-05 13:40:00,79.7,41.5,29.69,West,270,5.4,12.3,26,0.00,,,0.00,WUHU216HW,2013-07-05 19:40:00,
2013-07-05 13:41:00,79.9,41.6,29.69,NNW,338,4.0,8.3,26,0.00,,,0.00,WUHU216HW,2013-07-05 19:41:00,
2013-07-05 13:42:00,79.9,40.6,29.69,North,0,5.8,7.6,25,0.00,,,0.00,WUHU216HW,2013-07-05 19:42:00,
2013-07-05 13:45:00,79.7,40.4,29.69,NW,315,6.3,7.6,25,0.00,,,0.00,WUHU216HW,2013-07-05 19:45:00,
2013-07-05 13:46:00,79.7,40.4,29.69,NNW,338,4.9,7.6,25,0.00,,,0.00,WUHU216HW,2013-07-05 19:46:00,
2013-07-05 13:47:00,79.6,40.2,29.69,NNW,338,2.2,6.9,25,0.00,,,0.00,WUHU216HW,2013-07-05 19:47:00,
2013-07-05 13:50:00,80.3,41.9,29.69,East,90,3.8,6.9,26,0.00,,,0.00,WUHU216HW,2013-07-05 19:50:00,
2013-07-05 13:51:00,80.6,42.3,29.69,ESE,113,4.7,6.9,26,0.00,,,0.00,WUHU216HW,2013-07-05 19:51:00,
2013-07-05 13:52:00,81.0,44.6,29.69,ESE,113,6.3,6.9,28,0.00,,,0.00,WUHU216HW,2013-07-05 19:52:00,
2013-07-05 13:55:00,82.6,40.7,29.69,NNW,338,5.4,14.3,23,0.00,,,0.00,WUHU216HW,2013-07-05 19:55:00,
2013-07-05 13:56:00,82.8,40.9,29.69,NW,315,4.3,14.3,23,0.00,,,0.00,WUHU216HW,2013-07-05 19:56:00,
2013-07-05 13:57:00,82.8,40.9,29.69,WNW,293,5.6,14.3,23,0.00,,,0.00,WUHU216HW,2013-07-05 19:57:00,
2013-07-05 14:01:00,82.4,40.6,29.69,North,0,0.4,14.3,23,0.00,,,0.00,WUHU216HW,2013-07-05 20:01:00,
2013-07-05 14:02:00,82.3,41.5,29.68,ENE,68,4.0,14.3,24,0.00,,,0.00,WUHU216HW,2013-07-05 20:02:00,
2013-07-05 14:03:00,82.3,42.5,29.68,SE,135,3.6,14.3,25,0.00,,,0.00,WUHU216HW,2013-07-05 20:03:00,
2013-07-05 14:06:00,83.2,43.3,29.68,SSW,203,3.6,5.6,25,0.00,,,0.00,WUHU216HW,2013-07-05 20:06:00,
2013-07-05 14:07:00,83.3,43.5,29.68,SW,225,6.3,6.3,25,0.00,,,0.00,WUHU216HW,2013-07-05 20:07:00,
2013-07-05 14:08:00,83.9,41.8,29.68,North,0,10.7,10.7,23,0.00,,,0.00,WUHU216HW,2013-07-05 20:08:00,
2013-07-05 14:09:00,83.9,41.8,29.68,North,0,6.5,10.7,23,0.00,,,0.00,WUHU216HW,2013-07-05 20:09:00,
2013-07-05 14:11:00,82.4,41.6,29.68,NNE,23,6.9,10.7,24,0.00,,,0.00,WUHU216HW,2013-07-05 20:11:00,
2013-07-05 14:12:00,82.1,42.4,29.68,NNW,338,8.3,10.7,25,0.00,,,0.00,WUHU216HW,2013-07-05 20:12:00,
2013-07-05 14:13:00,81.9,42.2,29.68,North,0,6.9,10.7,25,0.00,,,0.00,WUHU216HW,2013-07-05 20:13:00,
2013-07-05 14:14:00,81.9,42.2,29.68,North,0,6.9,10.7,25,0.00,,,0.00,WUHU216HW,2013-07-05 20:14:00,
2013-07-05 14:16:00,81.7,41.0,29.69,ESE,113,1.8,10.7,24,0.00,,,0.00,WUHU216HW,2013-07-05 20:16:00,
2013-07-05 14:17:00,81.7,41.0,29.69,ESE,113,0.4,10.7,24,0.00,,,0.00,WUHU216HW,2013-07-05 20:17:00,
2013-07-05 14:18:00,81.7,41.0,29.69,ENE,68,0.9,10.7,24,0.00,,,0.00,WUHU216HW,2013-07-05 20:18:00,
2013-07-05 14:19:00,81.9,41.2,29.68,NE,45,4.0,9.4,24,0.00,,,0.00,WUHU216HW,2013-07-05 20:19:00,
2013-07-05 14:22:00,81.9,41.2,29.68,North,0,5.4,9.2,24,0.00,,,0.00,WUHU216HW,2013-07-05 20:22:00,
2013-07-05 14:23:00,81.9,42.2,29.68,NE,45,9.8,9.8,25,0.00,,,0.00,WUHU216HW,2013-07-05 20:23:00,
2013-07-05 14:24:00,81.9,40.1,29.68,NE,45,8.3,10.1,23,0.00,,,0.00,WUHU216HW,2013-07-05 20:24:00,
2013-07-05 14:27:00,81.9,41.2,29.68,NNE,23,6.5,10.1,24,0.00,,,0.00,WUHU216HW,2013-07-05 20:27:00,
2013-07-05 14:28:00,81.9,41.2,29.68,NE,45,6.5,10.1,24,0.00,,,0.00,WUHU216HW,2013-07-05 20:28:00,
2013-07-05 14:29:00,81.9,41.2,29.68,ENE,68,6.7,10.1,24,0.00,,,0.00,WUHU216HW,2013-07-05 20:29:00,
2013-07-05 14:32:00,82.3,41.5,29.68,East,90,12.1,12.1,24,0.00,,,0.00,WUHU216HW,2013-07-05 20:32:00,
2013-07-05 14:33:00,82.3,41.5,29.68,ENE,68,6.3,12.1,24,0.00,,,0.00,WUHU216HW,2013-07-05 20:33:00,
2013-07-05 14:34:00,82.1,40.3,29.68,NE,45,5.8,12.1,23,0.00,,,0.00,WUHU216HW,2013-07-05 20:34:00,
2013-07-05 14:38:00,82.1,41.3,29.68,East,90,6.5,12.1,24,0.00,,,0.00,WUHU216HW,2013-07-05 20:38:00,
2013-07-05 14:39:00,82.1,42.4,29.68,East,90,7.6,12.1,25,0.00,,,0.00,WUHU216HW,2013-07-05 20:39:00,
2013-07-05 14:40:00,82.1,42.4,29.68,ENE,68,9.2,12.1,25,0.00,,,0.00,WUHU216HW,2013-07-05 20:40:00,
2013-07-05 14:43:00,82.3,41.5,29.68,East,90,9.6,10.5,24,0.00,,,0.00,WUHU216HW,2013-07-05 20:43:00,
2013-07-05 14:44:00,82.1,42.4,29.68,SE,135,7.8,10.5,25,0.00,,,0.00,WUHU216HW,2013-07-05 20:44:00,
2013-07-05 14:45:00,82.4,42.7,29.68,ESE,113,6.5,10.5,25,0.00,,,0.00,WUHU216HW,2013-07-05 20:45:00,
2013-07-05 14:48:00,82.6,42.9,29.68,SSE,158,2.5,10.7,25,0.00,,,0.00,WUHU216HW,2013-07-05 20:48:00,
2013-07-05 14:49:00,82.8,42.9,29.68,SSW,203,3.8,10.7,25,0.00,,,0.00,WUHU216HW,2013-07-05 20:49:00,
2013-07-05 14:50:00,83.2,43.3,29.68,South,180,4.7,10.7,25,0.00,,,0.00,WUHU216HW,2013-07-05 20:50:00,
2013-07-05 14:53:00,84.6,44.5,29.68,SSE,158,2.9,10.7,25,0.00,,,0.00,WUHU216HW,2013-07-05 20:53:00,
2013-07-05 14:54:00,84.8,44.6,29.68,South,180,4.0,10.7,25,0.00,,,0.00,WUHU216HW,2013-07-05 20:54:00,
2013-07-05 14:55:00,85.3,45.1,29.68,SW,225,3.1,10.7,25,0.00,,,0.00,WUHU216HW,2013-07-05 20:55:00,
2013-07-05 14:59:00,86.4,44.9,29.68,SSE,158,6.3,6.3,24,0.00,,,0.00,WUHU216HW,2013-07-05 20:59:00,
2013-07-05 15:00:00,87.1,44.5,29.67,SSW,203,2.9,6.3,23,0.00,,,0.00,WUHU216HW,2013-07-05 21:00:00,
2013-07-05 15:04:00,88.2,43.3,29.68,NE,45,6.3,6.3,21,0.00,,,0.00,WUHU216HW,2013-07-05 21:04:00,
2013-07-05 15:05:00,87.8,40.2,29.68,NE,45,6.0,6.3,19,0.00,,,0.00,WUHU216HW,2013-07-05 21:05:00,
2013-07-05 15:09:00,84.6,41.3,29.67,NE,45,8.1,10.5,22,0.00,,,0.00,WUHU216HW,2013-07-05 21:09:00,
2013-07-05 15:10:00,84.6,41.3,29.67,NE,45,8.1,10.5,22,0.00,,,0.00,WUHU216HW,2013-07-05 21:10:00,
2013-07-05 15:11:00,83.7,41.6,29.67,East,90,6.3,10.5,23,0.00,,,0.00,WUHU216HW,2013-07-05 21:11:00,
2013-07-05 15:15:00,83.2,41.1,29.67,NNE,23,5.4,10.5,23,0.00,,,0.00,WUHU216HW,2013-07-05 21:15:00,
2013-07-05 15:16:00,83.0,41.1,29.67,North,0,5.6,10.5,23,0.00,,,0.00,WUHU216HW,2013-07-05 21:16:00,
2013-07-05 15:20:00,82.3,40.4,29.67,NNE,23,6.3,8.5,23,0.00,,,0.00,WUHU216HW,2013-07-05 21:20:00,
2013-07-05 15:21:00,82.1,40.3,29.67,North,0,1.8,8.5,23,0.00,,,0.00,WUHU216HW,2013-07-05 21:21:00,
2013-07-05 15:22:00,82.1,40.3,29.66,North,0,1.8,8.5,23,0.00,,,0.00,WUHU216HW,2013-07-05 21:22:00,
2013-07-05 15:25:00,81.9,43.3,29.66,NE,45,2.5,6.7,26,0.00,,,0.00,WUHU216HW,2013-07-05 21:25:00,
2013-07-05 15:26:00,82.3,41.5,29.66,North,0,6.9,6.9,24,0.00,,,0.00,WUHU216HW,2013-07-05 21:26:00,
2013-07-05 15:27:00,82.3,41.5,29.66,NE,45,4.0,8.7,24,0.00,,,0.00,WUHU216HW,2013-07-05 21:27:00,
2013-07-05 15:30:00,82.1,41.3,29.66,ENE,68,5.4,8.7,24,0.00,,,0.00,WUHU216HW,2013-07-05 21:30:00,
2013-07-05 15:31:00,82.1,41.3,29.66,ENE,68,4.7,8.7,24,0.00,,,0.00,WUHU216HW,2013-07-05 21:31:00,
2013-07-05 15:32:00,82.3,41.5,29.66,North,0,5.6,8.7,24,0.00,,,0.00,WUHU216HW,2013-07-05 21:32:00,
2013-07-05 15:35:00,82.4,41.6,29.66,NW,315,3.1,8.7,24,0.00,,,0.00,WUHU216HW,2013-07-05 21:35:00,
2013-07-05 15:36:00,82.4,41.6,29.66,NW,315,3.1,8.7,24,0.00,,,0.00,WUHU216HW,2013-07-05 21:36:00,
2013-07-05 15:37:00,82.6,41.8,29.66,WSW,248,4.0,6.9,24,0.00,,,0.00,WUHU216HW,2013-07-05 21:37:00,
2013-07-05 15:41:00,83.5,42.5,29.66,WSW,248,3.4,7.4,24,0.00,,,0.00,WUHU216HW,2013-07-05 21:41:00,
2013-07-05 15:42:00,83.9,42.9,29.66,WNW,293,1.3,7.4,24,0.00,,,0.00,WUHU216HW,2013-07-05 21:42:00,
2013-07-05 15:46:00,85.0,43.8,29.66,SSW,203,3.4,7.4,24,0.00,,,0.00,WUHU216HW,2013-07-05 21:46:00,
2013-07-05 15:47:00,85.1,43.9,29.65,SSW,203,5.1,7.4,24,0.00,,,0.00,WUHU216HW,2013-07-05 21:47:00,
2013-07-05 15:51:00,86.4,44.9,29.65,SSW,203,2.0,6.9,24,0.00,,,0.00,WUHU216HW,2013-07-05 21:51:00,
2013-07-05 15:52:00,86.9,44.4,29.65,SSW,203,1.1,6.9,23,0.00,,,0.00,WUHU216HW,2013-07-05 21:52:00,
2013-07-05 15:53:00,87.3,45.7,29.65,SE,135,2.2,6.9,24,0.00,,,0.00,WUHU216HW,2013-07-05 21:53:00,
2013-07-05 15:56:00,88.0,44.2,29.65,NNE,23,1.1,5.6,22,0.00,,,0.00,WUHU216HW,2013-07-05 21:56:00,
2013-07-05 15:57:00,88.0,44.2,29.65,NNE,23,1.8,5.6,22,0.00,,,0.00,WUHU216HW,2013-07-05 21:57:00,
2013-07-05 15:58:00,87.8,43.0,29.65,East,90,5.4,5.6,21,0.00,,,0.00,WUHU216HW,2013-07-05 21:58:00,
2013-07-05 16:01:00,86.4,42.9,29.65,NNW,338,4.5,10.5,22,0.00,,,0.00,WUHU216HW,2013-07-05 22:01:00,
2013-07-05 16:02:00,86.4,42.9,29.65,NNW,338,4.5,10.5,22,0.00,,,0.00,WUHU216HW,2013-07-05 22:02:00,
2013-07-05 16:03:00,85.0,42.7,29.65,NNE,23,4.9,10.7,23,0.00,,,0.00,WUHU216HW,2013-07-05 22:03:00,
2013-07-05 16:06:00,84.1,42.0,29.65,NNE,23,6.3,10.7,23,0.00,,,0.00,WUHU216HW,2013-07-05 22:06:00,
2013-07-05 16:07:00,84.1,42.0,29.65,NNE,23,6.3,10.7,23,0.00,,,0.00,WUHU216HW,2013-07-05 22:07:00,
2013-07-05 16:08:00,83.5,41.5,29.65,NE,45,6.3,10.7,23,0.00,,,0.00,WUHU216HW,2013-07-05 22:08:00,
2013-07-05 16:11:00,83.3,42.4,29.64,NE,45,10.3,10.7,24,0.00,,,0.00,WUHU216HW,2013-07-05 22:11:00,
2013-07-05 16:12:00,83.2,42.2,29.64,NNE,23,6.3,10.7,24,0.00,,,0.00,WUHU216HW,2013-07-05 22:12:00,
2013-07-05 16:13:00,83.2,42.2,29.64,North,0,11.0,11.0,24,0.00,,,0.00,WUHU216HW,2013-07-05 22:13:00,
2013-07-05 16:16:00,83.2,42.2,29.64,NE,45,1.1,11.4,24,0.00,,,0.00,WUHU216HW,2013-07-05 22:16:00,
2013-07-05 16:17:00,83.2,42.2,29.64,ENE,68,2.7,11.4,24,0.00,,,0.00,WUHU216HW,2013-07-05 22:17:00,
2013-07-05 16:18:00,83.3,42.4,29.64,SE,135,0.4,11.4,24,0.00,,,0.00,WUHU216HW,2013-07-05 22:18:00,
2013-07-05 16:22:00,83.3,41.3,29.64,North,0,10.3,16.3,23,0.00,,,0.00,WUHU216HW,2013-07-05 22:22:00,
2013-07-05 16:23:00,83.0,42.0,29.64,North,0,5.8,16.3,24,0.00,,,0.00,WUHU216HW,2013-07-05 22:23:00,
2013-07-05 16:27:00,82.8,42.0,29.64,NNE,23,11.9,16.3,24,0.00,,,0.00,WUHU216HW,2013-07-05 22:27:00,
2013-07-05 16:28:00,83.0,42.0,29.64,NE,45,10.7,16.3,24,0.00,,,0.00,WUHU216HW,2013-07-05 22:28:00,
2013-07-05 16:33:00,81.9,42.2,29.64,NNW,338,8.3,13.6,25,0.00,,,0.00,WUHU216HW,2013-07-05 22:33:00,
2013-07-05 16:34:00,81.7,42.1,29.64,North,0,6.3,12.8,25,0.00,,,0.00,WUHU216HW,2013-07-05 22:34:00,
2013-07-05 16:38:00,81.5,41.9,29.64,North,0,1.6,10.7,25,0.00,,,0.00,WUHU216HW,2013-07-05 22:38:00,
2013-07-05 16:39:00,81.9,42.2,29.64,North,0,7.8,9.8,25,0.00,,,0.00,WUHU216HW,2013-07-05 22:39:00,
2013-07-05 16:43:00,82.4,42.7,29.64,NE,45,9.2,9.8,25,0.00,,,0.00,WUHU216HW,2013-07-05 22:43:00,
2013-07-05 16:44:00,82.4,42.7,29.64,ESE,113,7.2,9.8,25,0.00,,,0.00,WUHU216HW,2013-07-05 22:44:00,
2013-07-05 16:45:00,82.4,42.7,29.64,ESE,113,7.2,9.2,25,0.00,,,0.00,WUHU216HW,2013-07-05 22:45:00,
2013-07-05 16:48:00,82.8,42.9,29.64,ENE,68,4.9,9.2,25,0.00,,,0.00,WUHU216HW,2013-07-05 22:48:00,
2013-07-05 16:49:00,83.0,43.1,29.64,NE,45,5.8,9.2,25,0.00,,,0.00,WUHU216HW,2013-07-05 22:49:00,
2013-07-05 16:50:00,83.2,43.3,29.64,ENE,68,8.5,9.2,25,0.00,,,0.00,WUHU216HW,2013-07-05 22:50:00,
2013-07-05 16:53:00,82.8,42.9,29.64,North,0,4.7,9.2,25,0.00,,,0.00,WUHU216HW,2013-07-05 22:53:00,
2013-07-05 16:54:00,82.8,42.0,29.64,NE,45,3.1,8.5,24,0.00,,,0.00,WUHU216HW,2013-07-05 22:54:00,
2013-07-05 16:55:00,82.8,42.9,29.63,NE,45,6.3,8.5,25,0.00,,,0.00,WUHU216HW,2013-07-05 22:55:00,
2013-07-05 16:58:00,82.4,43.8,29.63,NE,45,6.9,8.5,26,0.00,,,0.00,WUHU216HW,2013-07-05 22:58:00,
2013-07-05 16:59:00,82.4,42.7,29.63,NE,45,6.9,8.5,25,0.00,,,0.00,WUHU216HW,2013-07-05 22:59:00,
2013-07-05 17:00:00,82.3,43.6,29.63,NE,45,7.8,8.5,26,0.00,,,0.00,WUHU216HW,2013-07-05 23:00:00,
2013-07-05 17:01:00,82.1,43.4,29.63,ENE,68,8.5,8.5,26,0.00,,,0.00,WUHU216HW,2013-07-05 23:01:00,
2013-07-05 17:03:00,81.7,43.1,29.63,East,90,8.1,11.4,26,0.00,,,0.00,WUHU216HW,2013-07-05 23:03:00,
2013-07-05 17:04:00,81.5,45.1,29.62,ENE,68,9.2,11.4,28,0.00,,,0.00,WUHU216HW,2013-07-05 23:04:00,
2013-07-05 17:05:00,81.4,44.9,29.62,ENE,68,8.5,11.4,28,0.00,,,0.00,WUHU216HW,2013-07-05 23:05:00,
2013-07-05 17:06:00,81.4,44.9,29.62,East,90,7.6,11.4,28,0.00,,,0.00,WUHU216HW,2013-07-05 23:06:00,
2013-07-05 17:08:00,81.0,44.6,29.62,ENE,68,6.9,11.4,28,0.00,,,0.00,WUHU216HW,2013-07-05 23:08:00,
2013-07-05 17:09:00,81.0,44.6,29.62,ENE,68,6.9,11.4,28,0.00,,,0.00,WUHU216HW,2013-07-05 23:09:00,
2013-07-05 17:10:00,81.0,44.6,29.62,ENE,68,6.7,11.4,28,0.00,,,0.00,WUHU216HW,2013-07-05 23:10:00,
2013-07-05 17:11:00,81.0,44.6,29.62,North,0,4.0,11.4,28,0.00,,,0.00,WUHU216HW,2013-07-05 23:11:00,
2013-07-05 17:14:00,80.3,45.1,29.62,NNW,338,5.6,9.2,29,0.00,,,0.00,WUHU216HW,2013-07-05 23:14:00,
2013-07-05 17:15:00,79.9,45.8,29.62,NNW,338,4.0,8.9,30,0.00,,,0.00,WUHU216HW,2013-07-05 23:15:00,
2013-07-05 17:16:00,79.7,45.6,29.62,North,0,7.2,8.9,30,0.00,,,0.00,WUHU216HW,2013-07-05 23:16:00,
2013-07-05 17:19:00,79.6,45.5,29.63,NW,315,9.2,12.1,30,0.00,,,0.00,WUHU216HW,2013-07-05 23:19:00,
2013-07-05 17:20:00,79.6,45.5,29.63,NNW,338,11.4,12.1,30,0.00,,,0.00,WUHU216HW,2013-07-05 23:20:00,
2013-07-05 17:21:00,79.6,45.5,29.63,NNW,338,11.4,12.1,30,0.00,,,0.00,WUHU216HW,2013-07-05 23:21:00,
2013-07-05 17:24:00,79.6,45.5,29.64,NNW,338,6.5,12.1,30,0.00,,,0.00,WUHU216HW,2013-07-05 23:24:00,
2013-07-05 17:25:00,79.6,45.5,29.64,NNW,338,8.1,12.1,30,0.00,,,0.00,WUHU216HW,2013-07-05 23:25:00,
2013-07-05 17:26:00,79.6,45.5,29.64,NNW,338,8.1,12.1,30,0.00,,,0.00,WUHU216HW,2013-07-05 23:26:00,
2013-07-05 17:29:00,79.4,46.1,29.64,NW,315,5.1,11.4,31,0.00,,,0.00,WUHU216HW,2013-07-05 23:29:00,
2013-07-05 17:30:00,79.4,46.1,29.64,NW,315,6.3,11.4,31,0.00,,,0.00,WUHU216HW,2013-07-05 23:30:00,
2013-07-05 17:31:00,79.2,45.9,29.64,NNW,338,7.6,11.4,31,0.00,,,0.00,WUHU216HW,2013-07-05 23:31:00,
2013-07-05 17:34:00,78.8,46.4,29.64,NNW,338,7.6,8.5,32,0.00,,,0.00,WUHU216HW,2013-07-05 23:34:00,
2013-07-05 17:35:00,78.8,47.2,29.64,NW,315,6.0,8.5,33,0.00,,,0.00,WUHU216HW,2013-07-05 23:35:00,
2013-07-05 17:36:00,78.7,47.0,29.64,NW,315,7.2,8.5,33,0.00,,,0.00,WUHU216HW,2013-07-05 23:36:00,
2013-07-05 17:39:00,77.9,47.2,29.65,NW,315,6.3,8.5,34,0.00,,,0.00,WUHU216HW,2013-07-05 23:39:00,
2013-07-05 17:40:00,77.8,46.3,29.65,NNW,338,8.3,8.5,33,0.00,,,0.00,WUHU216HW,2013-07-05 23:40:00,
2013-07-05 17:41:00,77.4,46.0,29.65,NW,315,8.1,9.2,33,0.00,,,0.00,WUHU216HW,2013-07-05 23:41:00,
2013-07-05 17:44:00,77.0,46.5,29.65,NW,315,8.5,9.8,34,0.00,,,0.00,WUHU216HW,2013-07-05 23:44:00,
2013-07-05 17:45:00,76.9,46.3,29.65,WNW,293,11.0,11.0,34,0.00,,,0.00,WUHU216HW,2013-07-05 23:45:00,
2013-07-05 17:46:00,76.9,46.3,29.65,WNW,293,12.1,12.1,34,0.00,,,0.00,WUHU216HW,2013-07-05 23:46:00,
2013-07-05 17:47:00,76.9,46.3,29.65,WNW,293,12.1,12.1,34,0.00,,,0.00,WUHU216HW,2013-07-05 23:47:00,
2013-07-05 17:49:00,76.5,45.9,29.66,NW,315,14.1,15.7,34,0.00,,,0.00,WUHU216HW,2013-07-05 23:49:00,
2013-07-05 17:50:00,76.3,46.5,29.66,NW,315,15.0,15.7,35,0.00,,,0.00,WUHU216HW,2013-07-05 23:50:00,
2013-07-05 17:51:00,76.3,46.5,29.66,NW,315,15.0,15.7,35,0.00,,,0.00,WUHU216HW,2013-07-05 23:51:00,
2013-07-05 17:52:00,76.3,46.5,29.66,NW,315,15.0,15.7,35,0.00,,,0.00,WUHU216HW,2013-07-05 23:52:00,
2013-07-05 17:55:00,75.8,46.0,29.66,NW,315,13.0,15.7,35,0.00,,,0.00,WUHU216HW,2013-07-05 23:55:00,
2013-07-05 17:56:00,75.4,46.4,29.67,WNW,293,15.0,15.7,36,0.00,,,0.00,WUHU216HW,2013-07-05 23:56:00,
2013-07-05 17:57:00,75.2,47.1,29.67,NW,315,13.9,15.7,37,0.00,,,0.00,WUHU216HW,2013-07-05 23:57:00,
2013-07-05 18:00:00,74.7,46.5,29.68,West,270,16.3,16.3,37,0.00,,,0.00,WUHU216HW,2013-07-06 00:00:00,
2013-07-05 18:01:00,73.8,49.2,29.68,NW,315,10.3,16.3,42,0.00,,,0.00,WUHU216HW,2013-07-06 00:01:00,
2013-07-05 18:02:00,72.9,49.6,29.68,West,270,11.2,16.3,44,0.00,,,0.00,WUHU216HW,2013-07-06 00:02:00,
2013-07-05 18:03:00,72.7,50.1,29.68,West,270,11.0,16.3,45,0.00,,,0.00,WUHU216HW,2013-07-06 00:03:00,
2013-07-05 18:05:00,72.0,48.2,29.69,WNW,293,8.1,16.3,43,0.00,,,0.00,WUHU216HW,2013-07-06 00:05:00,
2013-07-05 18:06:00,71.8,48.6,29.69,WNW,293,11.0,16.3,44,0.00,,,0.00,WUHU216HW,2013-07-06 00:06:00,
2013-07-05 18:07:00,71.6,50.2,29.69,WSW,248,7.8,16.3,47,0.00,,,0.00,WUHU216HW,2013-07-06 00:07:00,
2013-07-05 18:08:00,71.5,49.5,29.69,West,270,12.5,16.3,46,0.00,,,0.00,WUHU216HW,2013-07-06 00:08:00,
2013-07-05 18:10:00,70.9,49.0,29.70,WSW,248,13.9,16.6,46,0.00,,,0.00,WUHU216HW,2013-07-06 00:10:00,
2013-07-05 18:11:00,70.9,50.8,29.70,WSW,248,13.9,16.6,49,0.00,,,0.00,WUHU216HW,2013-07-06 00:11:00,
2013-07-05 18:12:00,70.6,51.0,29.70,WSW,248,15.4,16.6,50,0.00,,,0.00,WUHU216HW,2013-07-06 00:12:00,
2013-07-05 18:13:00,70.2,52.2,29.71,WSW,248,15.2,17.2,53,0.00,,,0.00,WUHU216HW,2013-07-06 00:13:00,
2013-07-05 18:15:00,69.5,51.1,29.71,SW,225,16.8,24.4,52,0.01,,,0.01,WUHU216HW,2013-07-06 00:15:00,
2013-07-05 18:16:00,69.5,51.1,29.70,SW,225,15.2,24.4,52,0.01,,,0.01,WUHU216HW,2013-07-06 00:16:00,
2013-07-05 18:17:00,68.9,52.0,29.70,SW,225,12.5,24.4,55,0.02,,,0.02,WUHU216HW,2013-07-06 00:17:00,
2013-07-05 18:18:00,68.6,51.8,29.70,WSW,248,12.8,24.4,55,0.02,,,0.02,WUHU216HW,2013-07-06 00:18:00,
2013-07-05 18:20:00,68.0,52.2,29.70,SW,225,17.7,24.4,57,0.02,,,0.02,WUHU216HW,2013-07-06 00:20:00,
2013-07-05 18:21:00,68.0,52.2,29.70,SSW,203,15.4,24.4,57,0.02,,,0.02,WUHU216HW,2013-07-06 00:21:00,
2013-07-05 18:22:00,67.9,52.0,29.70,SSW,203,8.9,24.4,57,0.02,,,0.02,WUHU216HW,2013-07-06 00:22:00,
2013-07-05 18:23:00,67.7,52.4,29.70,SW,225,13.6,24.4,58,0.02,,,0.02,WUHU216HW,2013-07-06 00:23:00,
2013-07-05 18:25:00,67.3,52.0,29.70,SW,225,13.2,18.1,58,0.02,,,0.02,WUHU216HW,2013-07-06 00:25:00,
2013-07-05 18:26:00,67.3,52.0,29.70,SW,225,12.1,18.1,58,0.02,,,0.02,WUHU216HW,2013-07-06 00:26:00,
2013-07-05 18:27:00,67.3,53.0,29.70,WSW,248,10.3,18.1,60,0.02,,,0.02,WUHU216HW,2013-07-06 00:27:00,
2013-07-05 18:28:00,67.0,52.7,29.70,WSW,248,9.8,18.1,60,0.02,,,0.02,WUHU216HW,2013-07-06 00:28:00,
2013-07-05 18:30:00,67.0,52.7,29.70,SW,225,13.0,17.7,60,0.02,,,0.02,WUHU216HW,2013-07-06 00:30:00,
2013-07-05 18:31:00,66.8,52.0,29.70,SW,225,17.0,17.0,59,0.02,,,0.02,WUHU216HW,2013-07-06 00:31:00,
2013-07-05 18:32:00,66.8,51.6,29.70,WSW,248,17.0,17.0,58,0.02,,,0.02,WUHU216HW,2013-07-06 00:32:00,
2013-07-05 18:33:00,66.8,51.6,29.70,SW,225,18.8,18.8,58,0.02,,,0.02,WUHU216HW,2013-07-06 00:33:00,
2013-07-05 18:36:00,67.0,51.2,29.69,WSW,248,12.3,18.8,57,0.02,,,0.02,WUHU216HW,2013-07-06 00:36:00,
2013-07-05 18:37:00,66.8,50.6,29.69,WSW,248,12.1,18.8,56,0.02,,,0.02,WUHU216HW,2013-07-06 00:37:00,
2013-07-05 18:38:00,66.8,50.6,29.69,SW,225,13.0,18.8,56,0.02,,,0.02,WUHU216HW,2013-07-06 00:38:00,
2013-07-05 18:39:00,66.8,50.6,29.69,SW,225,13.0,18.8,56,0.02,,,0.02,WUHU216HW,2013-07-06 00:39:00,
2013-07-05 18:41:00,67.1,50.0,29.68,WSW,248,7.6,18.8,54,0.02,,,0.02,WUHU216HW,2013-07-06 00:41:00,
2013-07-05 18:42:00,67.3,50.0,29.67,WSW,248,8.1,18.8,54,0.02,,,0.02,WUHU216HW,2013-07-06 00:42:00,
2013-07-05 18:43:00,67.3,49.6,29.67,SW,225,8.3,18.1,53,0.02,,,0.02,WUHU216HW,2013-07-06 00:43:00,
2013-07-05 18:44:00,67.5,49.8,29.67,SW,225,8.3,18.1,53,0.02,,,0.02,WUHU216HW,2013-07-06 00:44:00,
2013-07-05 18:47:00,67.7,50.4,29.67,WSW,248,6.3,13.0,54,0.02,,,0.02,WUHU216HW,2013-07-06 00:47:00,
2013-07-05 18:48:00,67.9,51.6,29.66,West,270,8.7,13.0,56,0.02,,,0.02,WUHU216HW,2013-07-06 00:48:00,
2013-07-05 18:49:00,67.9,51.0,29.66,WSW,248,9.4,13.0,55,0.02,,,0.02,WUHU216HW,2013-07-06 00:49:00,
2013-07-05 18:52:00,67.3,52.5,29.67,WSW,248,9.2,10.5,59,0.02,,,0.02,WUHU216HW,2013-07-06 00:52:00,
2013-07-05 18:54:00,67.0,52.7,29.66,WSW,248,11.0,12.1,60,0.02,,,0.02,WUHU216HW,2013-07-06 00:54:00,
2013-07-05 18:57:00,66.6,52.7,29.66,WSW,248,13.0,15.7,61,0.02,,,0.02,WUHU216HW,2013-07-06 00:57:00,
2013-07-05 18:59:00,66.6,53.2,29.66,West,270,14.5,15.7,62,0.02,,,0.02,WUHU216HW,2013-07-06 00:59:00,
2013-07-05 19:02:00,66.4,53.0,29.66,WSW,248,8.9,15.7,62,0.02,,,0.02,WUHU216HW,2013-07-06 01:02:00,
2013-07-05 19:03:00,66.4,53.0,29.66,West,270,9.4,15.7,62,0.02,,,0.02,WUHU216HW,2013-07-06 01:03:00,
2013-07-05 19:04:00,66.4,52.6,29.66,West,270,9.2,15.7,61,0.02,,,0.02,WUHU216HW,2013-07-06 01:04:00,
2013-07-05 19:05:00,66.4,53.0,29.66,WSW,248,10.1,15.7,62,0.02,,,0.02,WUHU216HW,2013-07-06 01:05:00,
2013-07-05 19:07:00,66.6,52.7,29.65,WSW,248,7.6,14.5,61,0.02,,,0.02,WUHU216HW,2013-07-06 01:07:00,
2013-07-05 19:08:00,66.6,53.2,29.65,WSW,248,7.4,14.5,62,0.02,,,0.02,WUHU216HW,2013-07-06 01:08:00,
2013-07-05 19:09:00,66.8,53.4,29.65,WSW,248,6.9,14.5,62,0.02,,,0.02,WUHU216HW,2013-07-06 01:09:00,
2013-07-05 19:10:00,66.8,53.4,29.65,West,270,8.3,12.5,62,0.02,,,0.02,WUHU216HW,2013-07-06 01:10:00,
2013-07-05 19:13:00,67.1,54.1,29.64,WSW,248,8.3,11.0,63,0.01,,,0.02,WUHU216HW,2013-07-06 01:13:00,
2013-07-05 19:14:00,67.3,53.5,29.63,WSW,248,4.9,11.0,61,0.00,,,0.02,WUHU216HW,2013-07-06 01:14:00,
2013-07-05 19:15:00,67.3,53.0,29.63,West,270,3.6,11.0,60,0.00,,,0.02,WUHU216HW,2013-07-06 01:15:00,
2013-07-05 19:18:00,67.5,53.6,29.64,WSW,248,10.5,11.2,61,0.00,,,0.02,WUHU216HW,2013-07-06 01:18:00,
2013-07-05 19:19:00,67.7,53.7,29.64,WSW,248,9.6,11.2,61,0.00,,,0.02,WUHU216HW,2013-07-06 01:19:00,
2013-07-05 19:20:00,67.7,53.3,29.64,WSW,248,10.3,11.2,60,0.00,,,0.02,WUHU216HW,2013-07-06 01:20:00,
2013-07-05 19:23:00,67.7,53.3,29.64,SW,225,9.2,11.2,60,0.00,,,0.02,WUHU216HW,2013-07-06 01:23:00,
2013-07-05 19:24:00,67.7,53.3,29.65,SW,225,8.5,11.2,60,0.00,,,0.02,WUHU216HW,2013-07-06 01:24:00,
2013-07-05 19:25:00,67.7,53.3,29.65,South,180,6.3,11.2,60,0.00,,,0.02,WUHU216HW,2013-07-06 01:25:00,
2013-07-05 19:28:00,68.0,54.1,29.65,SSE,158,5.4,11.2,61,0.00,,,0.02,WUHU216HW,2013-07-06 01:28:00,
2013-07-05 19:29:00,68.0,54.1,29.65,SSE,158,6.5,11.2,61,0.00,,,0.02,WUHU216HW,2013-07-06 01:29:00,
2013-07-05 19:30:00,68.0,54.1,29.65,SE,135,7.6,11.2,61,0.00,,,0.02,WUHU216HW,2013-07-06 01:30:00,
2013-07-05 19:33:00,68.6,54.2,29.64,SSE,158,10.5,10.5,60,0.00,,,0.02,WUHU216HW,2013-07-06 01:33:00,
2013-07-05 19:34:00,68.8,53.9,29.65,SE,135,11.4,11.4,59,0.00,,,0.02,WUHU216HW,2013-07-06 01:34:00,
2013-07-05 19:35:00,68.9,54.0,29.65,SSE,158,12.8,12.8,59,0.00,,,0.02,WUHU216HW,2013-07-06 01:35:00,
2013-07-05 19:38:00,69.5,54.5,29.65,ESE,113,9.6,12.8,59,0.00,,,0.02,WUHU216HW,2013-07-06 01:38:00,
2013-07-05 19:39:00,69.7,54.7,29.65,ESE,113,9.2,12.8,59,0.00,,,0.02,WUHU216HW,2013-07-06 01:39:00,
2013-07-05 19:40:00,69.7,54.7,29.65,SE,135,8.5,12.8,59,0.00,,,0.02,WUHU216HW,2013-07-06 01:40:00,
2013-07-05 19:44:00,70.2,54.7,29.65,SSE,158,6.9,12.8,58,0.00,,,0.02,WUHU216HW,2013-07-06 01:44:00,
2013-07-05 19:45:00,70.2,54.7,29.65,SSE,158,6.9,12.8,58,0.00,,,0.02,WUHU216HW,2013-07-06 01:45:00,
2013-07-05 19:46:00,70.7,55.7,29.65,SSE,158,5.6,11.9,59,0.00,,,0.02,WUHU216HW,2013-07-06 01:46:00,
2013-07-05 19:49:00,71.8,55.7,29.65,South,180,6.3,10.1,57,0.00,,,0.02,WUHU216HW,2013-07-06 01:49:00,
2013-07-05 19:50:00,72.0,55.9,29.65,South,180,6.5,9.2,57,0.00,,,0.02,WUHU216HW,2013-07-06 01:50:00,
2013-07-05 19:51:00,72.7,56.0,29.64,SSW,203,6.9,8.1,56,0.00,,,0.02,WUHU216HW,2013-07-06 01:51:00,
2013-07-05 19:54:00,74.2,55.9,29.65,South,180,7.4,10.5,53,0.00,,,0.02,WUHU216HW,2013-07-06 01:54:00,
2013-07-05 19:55:00,74.2,55.9,29.65,South,180,7.4,10.5,53,0.00,,,0.02,WUHU216HW,2013-07-06 01:55:00,
2013-07-05 19:56:00,74.9,56.1,29.65,South,180,8.5,10.5,52,0.00,,,0.02,WUHU216HW,2013-07-06 01:56:00,
2013-07-05 19:59:00,76.0,56.1,29.65,SSW,203,1.8,10.5,50,0.00,,,0.02,WUHU216HW,2013-07-06 01:59:00,
2013-07-05 20:00:00,76.1,56.3,29.65,SW,225,1.6,10.5,50,0.00,,,0.02,WUHU216HW,2013-07-06 02:00:00,
2013-07-05 20:02:00,76.7,56.2,29.66,South,180,2.9,10.5,49,0.00,,,0.02,WUHU216HW,2013-07-06 02:02:00,
2013-07-05 20:04:00,77.4,54.9,29.67,North,0,3.4,9.4,46,0.00,,,0.02,WUHU216HW,2013-07-06 02:04:00,
2013-07-05 20:05:00,77.4,54.4,29.67,NNE,23,4.9,9.4,45,0.00,,,0.02,WUHU216HW,2013-07-06 02:05:00,
2013-07-05 20:07:00,76.7,53.6,29.67,WSW,248,2.0,6.7,45,0.00,,,0.02,WUHU216HW,2013-07-06 02:07:00,
2013-07-05 20:09:00,76.3,53.4,29.68,NW,315,2.2,6.7,45,0.00,,,0.02,WUHU216HW,2013-07-06 02:09:00,
2013-07-05 20:10:00,76.3,53.4,29.68,NW,315,2.2,6.7,45,0.00,,,0.02,WUHU216HW,2013-07-06 02:10:00,
2013-07-05 20:11:00,76.3,53.4,29.68,NW,315,2.2,6.7,45,0.00,,,0.02,WUHU216HW,2013-07-06 02:11:00,
2013-07-05 20:12:00,74.5,52.9,29.67,ENE,68,3.6,6.7,47,0.00,,,0.02,WUHU216HW,2013-07-06 02:12:00,
2013-07-05 20:15:00,74.5,52.9,29.68,ENE,68,3.6,6.7,47,0.00,,,0.02,WUHU216HW,2013-07-06 02:15:00,
2013-07-05 20:16:00,74.5,52.9,29.67,East,90,4.3,6.7,47,0.00,,,0.02,WUHU216HW,2013-07-06 02:16:00,
2013-07-05 20:18:00,74.9,53.8,29.68,ESE,113,8.7,8.7,48,0.00,,,0.02,WUHU216HW,2013-07-06 02:18:00,
2013-07-05 20:20:00,75.1,52.8,29.68,ENE,68,6.5,8.7,46,0.00,,,0.02,WUHU216HW,2013-07-06 02:20:00,
2013-07-05 20:21:00,75.1,52.8,29.68,ENE,68,6.5,8.7,46,0.00,,,0.02,WUHU216HW,2013-07-06 02:21:00,
2013-07-05 20:23:00,74.2,53.2,29.68,ESE,113,3.4,8.7,48,0.00,,,0.02,WUHU216HW,2013-07-06 02:23:00,
2013-07-05 20:25:00,73.8,52.8,29.68,ESE,113,9.8,11.0,48,0.00,,,0.02,WUHU216HW,2013-07-06 02:25:00,
2013-07-05 20:26:00,73.6,53.2,29.68,ESE,113,9.8,11.0,49,0.00,,,0.02,WUHU216HW,2013-07-06 02:26:00,
2013-07-05 20:28:00,73.1,51.6,29.68,East,90,5.8,11.0,47,0.00,,,0.02,WUHU216HW,2013-07-06 02:28:00,
2013-07-05 20:30:00,73.1,52.1,29.68,SE,135,2.0,11.0,48,0.00,,,0.02,WUHU216HW,2013-07-06 02:30:00,
2013-07-05 20:31:00,73.3,52.3,29.68,SE,135,4.5,11.0,48,0.00,,,0.02,WUHU216HW,2013-07-06 02:31:00,
2013-07-05 20:33:00,73.3,51.7,29.68,South,180,1.8,11.0,47,0.00,,,0.02,WUHU216HW,2013-07-06 02:33:00,
2013-07-05 20:35:00,73.3,51.7,29.68,SSW,203,2.2,10.5,47,0.00,,,0.02,WUHU216HW,2013-07-06 02:35:00,
2013-07-05 20:36:00,73.3,51.7,29.68,SSW,203,1.3,10.5,47,0.00,,,0.02,WUHU216HW,2013-07-06 02:36:00,
2013-07-05 20:37:00,73.3,51.7,29.68,WNW,293,2.0,10.5,47,0.00,,,0.02,WUHU216HW,2013-07-06 02:37:00,
2013-07-05 20:38:00,73.1,52.1,29.68,SW,225,4.7,6.7,48,0.00,,,0.02,WUHU216HW,2013-07-06 02:38:00,
2013-07-05 20:40:00,72.7,51.9,29.68,SW,225,6.5,6.7,48,0.00,,,0.02,WUHU216HW,2013-07-06 02:40:00,
2013-07-05 20:41:00,72.7,51.9,29.68,SW,225,4.7,6.7,48,0.00,,,0.02,WUHU216HW,2013-07-06 02:41:00,
2013-07-05 20:42:00,72.4,51.5,29.68,WSW,248,3.4,6.5,48,0.00,,,0.02,WUHU216HW,2013-07-06 02:42:00,
2013-07-05 20:44:00,72.2,51.3,29.68,South,180,1.1,6.5,48,0.00,,,0.02,WUHU216HW,2013-07-06 02:44:00,
2013-07-05 20:45:00,72.0,51.1,29.68,SE,135,1.8,6.5,48,0.00,,,0.02,WUHU216HW,2013-07-06 02:45:00,
2013-07-05 20:46:00,71.8,51.0,29.68,ESE,113,1.1,6.5,48,0.00,,,0.02,WUHU216HW,2013-07-06 02:46:00,
2013-07-05 20:47:00,71.6,50.9,29.69,East,90,2.9,6.5,48,0.00,,,0.02,WUHU216HW,2013-07-06 02:47:00,
2013-07-05 20:49:00,71.5,50.7,29.69,East,90,4.7,6.5,48,0.00,,,0.02,WUHU216HW,2013-07-06 02:49:00,
2013-07-05 20:51:00,71.1,50.9,29.69,East,90,4.5,6.5,49,0.00,,,0.02,WUHU216HW,2013-07-06 02:51:00,
2013-07-05 20:52:00,71.1,50.9,29.69,East,90,4.3,5.4,49,0.00,,,0.02,WUHU216HW,2013-07-06 02:52:00,
2013-07-05 20:53:00,70.9,50.8,29.69,East,90,4.3,5.4,49,0.00,,,0.02,WUHU216HW,2013-07-06 02:53:00,
2013-07-05 20:54:00,70.7,51.2,29.69,ESE,113,4.0,5.4,50,0.00,,,0.02,WUHU216HW,2013-07-06 02:54:00,
2013-07-05 20:56:00,70.6,51.0,29.68,SE,135,5.4,5.4,50,0.00,,,0.02,WUHU216HW,2013-07-06 02:56:00,
2013-07-05 20:57:00,70.4,50.9,29.68,SE,135,2.7,5.4,50,0.00,,,0.02,WUHU216HW,2013-07-06 02:57:00,
2013-07-05 20:58:00,70.4,50.9,29.69,ESE,113,3.4,5.4,50,0.00,,,0.02,WUHU216HW,2013-07-06 02:58:00,
2013-07-05 20:59:00,70.2,50.8,29.69,SSE,158,1.8,5.4,50,0.00,,,0.02,WUHU216HW,2013-07-06 02:59:00,
2013-07-05 21:01:00,70.2,50.8,29.69,SSW,203,2.5,5.4,50,0.00,,,0.02,WUHU216HW,2013-07-06 03:01:00,
2013-07-05 21:02:00,70.2,50.8,29.69,SW,225,1.6,5.4,50,0.00,,,0.02,WUHU216HW,2013-07-06 03:02:00,
2013-07-05 21:03:00,70.2,50.8,29.69,SSW,203,1.6,5.4,50,0.00,,,0.02,WUHU216HW,2013-07-06 03:03:00,
2013-07-05 21:04:00,70.2,50.8,29.69,SSE,158,0.9,5.4,50,0.00,,,0.02,WUHU216HW,2013-07-06 03:04:00,
2013-07-05 21:06:00,70.0,50.6,29.68,SSW,203,2.7,3.6,50,0.00,,,0.02,WUHU216HW,2013-07-06 03:06:00,
2013-07-05 21:07:00,70.0,50.6,29.68,SW,225,2.7,3.6,50,0.00,,,0.02,WUHU216HW,2013-07-06 03:07:00,
2013-07-05 21:08:00,69.8,50.4,29.68,SW,225,2.5,3.6,50,0.00,,,0.02,WUHU216HW,2013-07-06 03:08:00,
2013-07-05 21:09:00,70.0,50.6,29.68,SSW,203,3.6,3.6,50,0.00,,,0.02,WUHU216HW,2013-07-06 03:09:00,
2013-07-05 21:11:00,69.8,51.0,29.68,SW,225,4.0,4.0,51,0.00,,,0.02,WUHU216HW,2013-07-06 03:11:00,
2013-07-05 21:12:00,69.8,51.0,29.68,SW,225,4.3,4.3,51,0.00,,,0.02,WUHU216HW,2013-07-06 03:12:00,
2013-07-05 21:14:00,69.7,50.8,29.68,SW,225,4.7,4.7,51,0.00,,,0.02,WUHU216HW,2013-07-06 03:14:00,
2013-07-05 21:17:00,69.5,50.0,29.68,WSW,248,4.3,4.7,50,0.00,,,0.02,WUHU216HW,2013-07-06 03:17:00,
2013-07-05 21:18:00,69.5,50.0,29.68,WSW,248,4.3,4.7,50,0.00,,,0.02,WUHU216HW,2013-07-06 03:18:00,
2013-07-05 21:19:00,69.1,49.8,29.68,WSW,248,5.1,5.1,50,0.00,,,0.02,WUHU216HW,2013-07-06 03:19:00,
2013-07-05 21:22:00,68.8,50.0,29.68,WSW,248,4.5,5.4,51,0.00,,,0.02,WUHU216HW,2013-07-06 03:22:00,
2013-07-05 21:23:00,68.8,50.4,29.68,SW,225,5.4,5.4,52,0.00,,,0.02,WUHU216HW,2013-07-06 03:23:00,
2013-07-05 21:24:00,68.4,50.0,29.68,WSW,248,3.4,5.4,52,0.00,,,0.02,WUHU216HW,2013-07-06 03:24:00,
2013-07-05 21:25:00,68.4,50.0,29.68,WSW,248,3.8,5.4,52,0.00,,,0.02,WUHU216HW,2013-07-06 03:25:00,
2013-07-05 21:27:00,68.2,50.4,29.68,SSW,203,3.6,5.4,53,0.00,,,0.02,WUHU216HW,2013-07-06 03:27:00,
2013-07-05 21:28:00,68.0,50.2,29.68,SW,225,2.7,5.4,53,0.00,,,0.02,WUHU216HW,2013-07-06 03:28:00,
2013-07-05 21:30:00,68.0,50.2,29.68,SSW,203,3.1,5.4,53,0.00,,,0.02,WUHU216HW,2013-07-06 03:30:00,
2013-07-05 21:32:00,67.9,50.0,29.68,SW,225,4.0,5.4,53,0.00,,,0.02,WUHU216HW,2013-07-06 03:32:00,
2013-07-05 21:33:00,67.9,50.0,29.69,SW,225,4.0,4.5,53,0.00,,,0.02,WUHU216HW,2013-07-06 03:33:00,
2013-07-05 21:35:00,67.7,50.4,29.69,SW,225,4.0,4.5,54,0.00,,,0.02,WUHU216HW,2013-07-06 03:35:00,
2013-07-05 21:36:00,67.5,50.2,29.69,SW,225,3.4,4.5,54,0.00,,,0.02,WUHU216HW,2013-07-06 03:36:00,
2013-07-05 21:37:00,67.3,50.0,29.69,SW,225,3.6,4.5,54,0.00,,,0.02,WUHU216HW,2013-07-06 03:37:00,
2013-07-05 21:38:00,67.3,50.0,29.69,SW,225,3.8,4.5,54,0.00,,,0.02,WUHU216HW,2013-07-06 03:38:00,
2013-07-05 21:40:00,67.1,50.0,29.69,SW,225,3.8,4.5,54,0.00,,,0.02,WUHU216HW,2013-07-06 03:40:00,
2013-07-05 21:41:00,67.1,50.0,29.69,SW,225,3.8,4.3,54,0.00,,,0.02,WUHU216HW,2013-07-06 03:41:00,
2013-07-05 21:42:00,67.0,50.2,29.69,SW,225,3.6,4.3,55,0.00,,,0.02,WUHU216HW,2013-07-06 03:42:00,
2013-07-05 21:43:00,67.0,50.2,29.69,SW,225,3.1,4.3,55,0.00,,,0.02,WUHU216HW,2013-07-06 03:43:00,
2013-07-05 21:44:00,67.0,50.2,29.69,SW,225,3.1,4.3,55,0.00,,,0.02,WUHU216HW,2013-07-06 03:44:00,
2013-07-05 21:45:00,66.8,50.6,29.69,SW,225,3.6,4.0,56,0.00,,,0.02,WUHU216HW,2013-07-06 03:45:00,
2013-07-05 21:46:00,66.6,50.0,29.69,SW,225,3.8,4.0,55,0.00,,,0.02,WUHU216HW,2013-07-06 03:46:00,
2013-07-05 21:47:00,66.4,50.2,29.69,WSW,248,4.3,4.3,56,0.00,,,0.02,WUHU216HW,2013-07-06 03:47:00,
2013-07-05 21:48:00,66.2,49.6,29.69,WSW,248,5.1,5.6,55,0.00,,,0.02,WUHU216HW,2013-07-06 03:48:00,
2013-07-05 21:49:00,66.2,49.6,29.69,WSW,248,5.1,5.6,55,0.00,,,0.02,WUHU216HW,2013-07-06 03:49:00,
2013-07-05 21:50:00,65.9,49.7,29.69,WSW,248,4.7,5.6,56,0.00,,,0.02,WUHU216HW,2013-07-06 03:50:00,
2013-07-05 21:51:00,65.7,49.5,29.69,WSW,248,5.4,5.6,56,0.00,,,0.02,WUHU216HW,2013-07-06 03:51:00,
2013-07-05 21:53:00,65.3,49.1,29.69,WSW,248,4.5,5.6,56,0.00,,,0.02,WUHU216HW,2013-07-06 03:53:00,
2013-07-05 21:54:00,65.3,49.7,29.69,WSW,248,4.5,5.6,57,0.00,,,0.02,WUHU216HW,2013-07-06 03:54:00,
2013-07-05 21:55:00,65.2,49.5,29.69,WSW,248,6.3,6.3,57,0.00,,,0.02,WUHU216HW,2013-07-06 03:55:00,
2013-07-05 21:56:00,65.0,49.8,29.69,WSW,248,5.4,6.3,58,0.00,,,0.02,WUHU216HW,2013-07-06 03:56:00,
2013-07-05 21:58:00,64.8,49.6,29.69,WSW,248,4.7,6.3,58,0.00,,,0.02,WUHU216HW,2013-07-06 03:58:00,
2013-07-05 21:59:00,64.8,49.6,29.69,WSW,248,4.7,6.3,58,0.00,,,0.02,WUHU216HW,2013-07-06 03:59:00,
2013-07-05 22:00:00,64.4,49.8,29.69,WSW,248,4.7,6.3,59,0.00,,,0.02,WUHU216HW,2013-07-06 04:00:00,
2013-07-05 22:01:00,64.4,49.8,29.69,WSW,248,4.7,6.3,59,0.00,,,0.02,WUHU216HW,2013-07-06 04:01:00,
2013-07-05 22:06:00,64.1,50.3,29.69,WSW,248,6.3,6.3,61,0.00,,,0.02,WUHU216HW,2013-07-06 04:06:00,
2013-07-05 22:11:00,63.7,50.4,29.70,WSW,248,6.3,6.3,62,0.00,,,0.02,WUHU216HW,2013-07-06 04:11:00,
2013-07-05 22:12:00,63.7,50.4,29.70,WSW,248,6.3,6.3,62,0.00,,,0.02,WUHU216HW,2013-07-06 04:12:00,
2013-07-05 22:16:00,63.7,50.1,29.70,WSW,248,3.8,6.3,61,0.00,,,0.02,WUHU216HW,2013-07-06 04:16:00,
2013-07-05 22:17:00,63.7,50.1,29.70,SW,225,4.3,6.3,61,0.00,,,0.02,WUHU216HW,2013-07-06 04:17:00,
2013-07-05 22:21:00,63.9,49.8,29.70,SE,135,4.3,6.3,60,0.00,,,0.02,WUHU216HW,2013-07-06 04:21:00,
2013-07-05 22:22:00,63.9,49.8,29.70,ESE,113,5.1,6.3,60,0.00,,,0.02,WUHU216HW,2013-07-06 04:22:00,
2013-07-05 22:26:00,63.7,49.6,29.70,SE,135,6.3,7.6,60,0.00,,,0.02,WUHU216HW,2013-07-06 04:26:00,
2013-07-05 22:27:00,63.5,49.4,29.70,SE,135,5.1,7.6,60,0.00,,,0.02,WUHU216HW,2013-07-06 04:27:00,
2013-07-05 22:31:00,63.2,50.0,29.70,SE,135,4.5,7.6,62,0.00,,,0.02,WUHU216HW,2013-07-06 04:31:00,
2013-07-05 22:32:00,63.0,49.8,29.70,SE,135,4.0,7.6,62,0.00,,,0.02,WUHU216HW,2013-07-06 04:32:00,
2013-07-05 22:33:00,62.8,49.6,29.70,SE,135,3.1,7.6,62,0.00,,,0.02,WUHU216HW,2013-07-06 04:33:00,
2013-07-05 22:36:00,62.5,49.2,29.70,SE,135,0.2,6.9,62,0.00,,,0.02,WUHU216HW,2013-07-06 04:36:00,
2013-07-05 22:37:00,62.3,49.2,29.70,ESE,113,0.9,6.9,62,0.00,,,0.02,WUHU216HW,2013-07-06 04:37:00,
2013-07-05 22:38:00,62.3,50.8,29.70,NNE,23,1.1,6.3,66,0.00,,,0.02,WUHU216HW,2013-07-06 04:38:00,
2013-07-05 22:41:00,61.6,51.4,29.70,North,0,2.2,4.7,69,0.00,,,0.02,WUHU216HW,2013-07-06 04:41:00,
2013-07-05 22:42:00,61.4,51.2,29.70,North,0,1.1,4.5,69,0.00,,,0.02,WUHU216HW,2013-07-06 04:42:00,
2013-07-05 22:43:00,61.2,51.5,29.70,North,0,1.6,4.0,70,0.00,,,0.02,WUHU216HW,2013-07-06 04:43:00,
2013-07-05 22:46:00,60.5,50.3,29.70,NNW,338,2.7,3.4,69,0.00,,,0.02,WUHU216HW,2013-07-06 04:46:00,
2013-07-05 22:47:00,60.3,51.3,29.70,NNW,338,3.6,3.6,72,0.00,,,0.02,WUHU216HW,2013-07-06 04:47:00,
2013-07-05 22:48:00,60.3,50.9,29.70,NNW,338,3.6,3.6,71,0.00,,,0.02,WUHU216HW,2013-07-06 04:48:00,
2013-07-05 22:51:00,60.1,50.4,29.70,SSE,158,1.8,4.0,70,0.00,,,0.02,WUHU216HW,2013-07-06 04:51:00,
2013-07-05 22:52:00,60.1,50.0,29.70,SW,225,1.8,4.0,69,0.00,,,0.02,WUHU216HW,2013-07-06 04:52:00,
2013-07-05 22:53:00,60.1,50.0,29.70,WNW,293,2.5,4.0,69,0.00,,,0.02,WUHU216HW,2013-07-06 04:53:00,
2013-07-05 22:57:00,60.5,50.3,29.70,South,180,2.0,4.0,69,0.00,,,0.02,WUHU216HW,2013-07-06 04:57:00,
2013-07-05 22:58:00,60.5,50.0,29.70,South,180,0.7,4.0,68,0.00,,,0.02,WUHU216HW,2013-07-06 04:58:00,
2013-07-05 23:02:00,60.5,49.5,29.70,SSE,158,0.9,2.5,67,0.00,,,0.02,WUHU216HW,2013-07-06 05:02:00,
2013-07-05 23:03:00,60.5,49.5,29.70,SSE,158,0.7,2.5,67,0.00,,,0.02,WUHU216HW,2013-07-06 05:03:00,
2013-07-05 23:07:00,60.7,49.3,29.70,SSE,158,0.4,1.8,66,0.00,,,0.02,WUHU216HW,2013-07-06 05:07:00,
2013-07-05 23:08:00,60.7,49.3,29.70,SSE,158,0.4,1.8,66,0.00,,,0.02,WUHU216HW,2013-07-06 05:08:00,
2013-07-05 23:09:00,60.7,49.3,29.70,SSW,203,1.1,1.3,66,0.00,,,0.02,WUHU216HW,2013-07-06 05:09:00,
2013-07-05 23:12:00,60.5,50.0,29.71,West,270,2.2,3.1,68,0.00,,,0.02,WUHU216HW,2013-07-06 05:12:00,
2013-07-05 23:13:00,60.5,50.0,29.71,West,270,2.0,3.1,68,0.00,,,0.02,WUHU216HW,2013-07-06 05:13:00,
2013-07-05 23:14:00,60.3,50.6,29.71,WNW,293,2.7,3.1,70,0.00,,,0.02,WUHU216HW,2013-07-06 05:14:00,
2013-07-05 23:17:00,59.8,50.0,29.71,NW,315,2.9,4.0,70,0.00,,,0.02,WUHU216HW,2013-07-06 05:17:00,
2013-07-05 23:18:00,59.6,49.9,29.71,WNW,293,3.8,4.0,70,0.00,,,0.02,WUHU216HW,2013-07-06 05:18:00,
2013-07-05 23:19:00,59.4,49.7,29.71,NW,315,3.1,4.0,70,0.00,,,0.02,WUHU216HW,2013-07-06 05:19:00,
2013-07-05 23:23:00,59.4,49.2,29.71,NW,315,1.1,4.0,69,0.00,,,0.02,WUHU216HW,2013-07-06 05:23:00,
2013-07-05 23:24:00,59.4,49.2,29.71,WSW,248,1.1,4.0,69,0.00,,,0.02,WUHU216HW,2013-07-06 05:24:00,
2013-07-05 23:28:00,59.4,49.7,29.71,West,270,4.3,4.5,70,0.00,,,0.02,WUHU216HW,2013-07-06 05:28:00,
2013-07-05 23:29:00,59.4,49.7,29.71,West,270,4.7,4.9,70,0.00,,,0.02,WUHU216HW,2013-07-06 05:29:00,
2013-07-05 23:33:00,59.6,49.4,29.71,WNW,293,4.7,5.4,69,0.00,,,0.02,WUHU216HW,2013-07-06 05:33:00,
2013-07-05 23:34:00,59.6,49.9,29.71,WNW,293,4.7,5.4,70,0.00,,,0.02,WUHU216HW,2013-07-06 05:34:00,
2013-07-05 23:38:00,59.4,49.7,29.71,West,270,3.6,5.4,70,0.00,,,0.02,WUHU216HW,2013-07-06 05:38:00,
2013-07-05 23:39:00,59.6,49.9,29.71,WNW,293,2.5,5.4,70,0.00,,,0.02,WUHU216HW,2013-07-06 05:39:00,
2013-07-05 23:43:00,59.8,49.6,29.71,NW,315,3.4,4.9,69,0.00,,,0.02,WUHU216HW,2013-07-06 05:43:00,
2013-07-05 23:44:00,59.8,49.2,29.71,NW,315,3.4,4.9,68,0.00,,,0.02,WUHU216HW,2013-07-06 05:44:00,
2013-07-05 23:45:00,59.8,49.2,29.71,NW,315,3.8,4.9,68,0.00,,,0.02,WUHU216HW,2013-07-06 05:45:00,
2013-07-05 23:48:00,59.6,49.4,29.70,NW,315,4.5,4.7,69,0.00,,,0.02,WUHU216HW,2013-07-06 05:48:00,
2013-07-05 23:49:00,59.6,49.4,29.70,NW,315,3.4,4.7,69,0.00,,,0.02,WUHU216HW,2013-07-06 05:49:00,
2013-07-05 23:50:00,59.4,50.0,29.70,NW,315,5.8,5.8,71,0.00,,,0.02,WUHU216HW,2013-07-06 05:50:00,
2013-07-05 23:53:00,59.0,50.4,29.71,NNW,338,7.6,7.6,73,0.00,,,0.02,WUHU216HW,2013-07-06 05:53:00,
2013-07-05 23:54:00,59.0,50.8,29.71,NNW,338,6.9,7.6,74,0.00,,,0.02,WUHU216HW,2013-07-06 05:54:00,
2013-07-05 23:55:00,59.0,50.8,29.71,NNW,338,5.8,7.6,74,0.00,,,0.02,WUHU216HW,2013-07-06 05:55:00,
2013-07-05 23:58:00,59.0,51.1,29.71,NNW,338,5.6,7.6,75,0.00,,,0.00,WUHU216HW,2013-07-06 05:58:00,
2013-07-05 23:59:00,59.0,51.1,29.71,NNW,338,4.9,7.6,75,0.00,,,0.00,WUHU216HW,2013-07-06 05:59:00,